GFSNW_prec_kuchsnow_204.txt.gz
Snowfall_Accumulation
0.0 0.0 0.0 0.0 0.0 0.0 0.0 0.0 5.4 0.0 0.0 2.0 3.0 3.5 1.1 0.0 0.0 0.0 0.0 0.0 0.0 0.0 0.0 0.0 0.0 0.0 0.0 0.0 0.0 0.0 0.0 0.3 1.2 0.2 0.0 0.0 0.0 0.0 0.0 3.4 1.3 2.5 2.8 2.1
0.0 0.0 0.0 0.0 0.0 0.0 0.0 0.0 0.4 0.0 0.0 4.8 2.7 0.0 0.0 0.0 0.0 0.0 0.0 0.0 0.0 0.0 0.0 0.0 0.0 0.0 0.0 0.0 0.0 0.0 0.0 0.7 1.0 1.4 0.3 0.0 0.4 0.0 0.0 0.2 0.8 2.7 2.3 0.1
0.0 0.0 0.0 0.0 0.0 0.0 0.0 0.0 4.7 0.0 0.0 0.0 0.0 0.0 0.1 0.0 0.0 0.0 0.0 0.0 0.0 0.0 0.0 0.0 0.0 0.0 0.0 0.0 0.0 0.0 0.0 0.6 0.9 1.2 2.0 1.9 2.5 0.2 0.1 1.2 6.3 0.1 0.1 0.0
0.0 0.0 0.0 0.0 0.0 0.0 0.0 0.0 0.7 0.0 3.9 0.4 0.0 0.0 0.0 0.0 0.0 0.0 0.0 0.0 0.0 0.0 0.0 0.0 0.0 0.0 0.0 0.0 0.0 0.0 0.0 2.0 0.3 0.4 0.3 2.6 1.7 0.5 0.4 2.7 0.4 2.1 0.0 0.0
0.0 0.0 0.0 0.0 0.0 0.0 0.0 0.0 0.0 0.0 0.0 0.0 0.0 0.0 0.0 0.0 0.0 0.0 0.0 0.0 0.0 0.0 0.0 0.0 0.0 0.0 0.0 0.0 0.0 0.0 0.0 2.8 2.2 2.7 0.7 1.6 1.9 0.2 0.2 0.2 0.0 0.0 0.0 0.0
0.0 0.0 0.0 0.0 0.0 0.0 0.0 0.0 0.0 0.0 0.0 0.0 0.0 0.0 0.0 0.0 0.0 0.0 0.0 0.0 0.0 0.0 0.0 0.0 0.0 0.0 0.0 0.0 0.0 0.0 0.6 3.1 4.8 4.7 0.2 0.7 1.7 0.2 0.1 0.0 0.0 0.0 0.1 0.0
0.0 0.0 0.0 0.0 0.0 0.0 0.0 0.0 0.0 0.0 0.1 0.0 0.0 0.0 0.0 0.0 0.0 0.1 0.0 0.0 0.0 0.0 0.0 0.0 0.0 0.0 0.0 0.0 0.0 0.0 0.0 2.7 4.5 7.5 2.1 5.1 0.0 0.0 0.0 0.0 0.0 0.0 0.0 0.0
0.0 0.0 0.0 0.0 0.0 0.0 0.0 0.0 0.0 0.0 0.5 0.0 0.0 0.0 0.0 0.0 0.0 0.0 0.0 0.0 0.0 0.0 0.0 0.0 0.0 0.0 0.0 0.0 0.0 0.0 0.0 0.3 2.6 3.8 2.3 0.0 0.0 0.0 0.0 0.0 0.0 0.0 0.0 0.0
0.0 0.0 0.0 0.0 0.0 0.0 0.0 0.0 0.0 0.0 0.6 0.0 0.0 0.0 0.0 0.0 0.0 0.0 0.0 0.0 0.0 0.0 0.0 0.0 0.6 0.0 0.0 0.0 0.0 0.0 0.0 0.0 0.8 0.8 2.2 0.7 0.0 0.0 0.0 0.0 0.0 0.0 0.0 0.0
0.0 0.0 0.0 0.0 0.0 0.0 0.0 0.0 0.0 0.0 1.1 0.1 0.0 0.0 0.1 0.0 0.0 0.0 0.0 0.0 0.0 0.0 0.0 0.2 0.3 0.0 0.0 0.0 0.0 0.1 0.1 0.2 1.1 0.9 1.1 0.0 0.0 0.0 0.0 0.0 0.0 0.0 0.0 0.0
0.0 0.0 0.0 0.0 0.0 0.0 0.0 0.0 0.0 0.0 0.8 0.1 0.0 0.0 0.0 0.0 0.0 0.0 0.0 0.0 0.0 0.0 0.4 0.4 0.1 0.1 0.0 0.0 0.0 0.0 0.0 0.1 0.2 0.3 0.9 0.0 0.0 0.0 0.0 0.0 0.0 0.0 0.0 0.0
0.0 0.0 0.0 0.0 0.0 0.0 0.0 0.0 0.0 0.0 0.1 0.0 0.0 0.0 0.0 0.0 0.0 0.0 0.0 0.0 0.0 0.0 1.0 1.1 0.3 0.5 0.3 0.1 0.2 0.0 0.0 0.0 0.0 0.0 0.0 0.0 0.0 0.0 0.0 0.0 0.0 0.0 0.0 0.0
0.0 0.0 0.0 0.0 0.0 0.0 0.0 0.0 0.0 0.0 0.3 0.0 0.0 0.0 0.0 0.0 0.0 0.0 0.2 0.0 0.0 0.0 0.0 0.1 0.3 0.7 0.2 0.4 0.1 0.0 0.0 0.0 0.0 0.0 0.0 0.0 0.0 0.0 0.0 0.0 0.0 0.0 0.0 0.0
0.0 0.0 0.0 0.0 0.0 0.0 0.0 0.0 0.0 0.0 0.2 4.2 0.1 0.0 0.0 0.0 0.0 0.0 0.0 0.0 0.0 0.0 0.4 0.6 0.7 1.0 0.0 0.0 0.1 0.0 0.0 0.0 0.0 0.0 0.0 0.0 0.0 0.0 0.0 0.0 0.0 0.0 0.0 0.0
0.0 0.0 0.0 0.0 0.0 0.0 0.0 0.0 0.0 0.0 0.3 4.5 1.1 0.0 0.0 0.0 0.0 0.0 0.0 0.0 0.0 0.2 0.8 1.8 1.8 0.2 0.4 0.2 0.1 0.0 0.0 0.0 0.0 0.0 0.0 0.0 0.0 0.0 0.0 0.0 0.0 0.0 0.0 0.0
0.0 0.0 0.0 0.0 0.0 0.0 0.0 0.9 0.0 0.0 0.0 3.6 8.7 0.0 0.0 0.0 0.0 0.0 0.0 0.0 0.0 0.8 0.5 2.2 0.1 0.0 0.4 1.7 0.2 0.0 0.0 0.0 0.0 0.0 0.0 0.0 0.0 0.0 0.0 0.0 0.0 0.0 0.0 0.0
0.0 0.0 0.0 0.0 0.0 0.0 0.2 1.0 0.0 0.0 0.0 4.7 19.3 7.6 0.1 0.0 0.0 0.0 0.0 0.0 0.0 1.7 2.1 1.3 1.0 0.4 1.5 1.9 0.6 0.0 0.0 0.0 0.0 0.0 0.0 0.0 0.0 0.0 0.0 0.0 0.0 0.0 0.0 0.0
0.0 0.0 0.0 0.0 0.0 0.0 0.0 0.0 0.0 0.0 1.7 4.8 26.6 16.1 5.6 0.0 0.2 0.7 0.0 0.0 0.2 3.2 1.7 0.4 0.8 0.7 2.2 4.7 0.0 0.0 0.0 0.0 0.0 0.0 0.0 0.0 0.0 0.0 0.0 0.0 0.0 0.0 0.0 0.0
0.0 0.0 0.0 0.0 0.0 0.1 0.0 0.0 0.0 0.0 0.4 22.6 12.8 12.7 7.4 1.2 0.3 0.6 1.0 0.0 5.4 0.2 2.7 0.1 0.3 1.8 6.1 0.0 0.0 0.1 0.0 0.0 0.0 0.0 0.0 0.0 0.0 0.0 0.0 0.0 0.0 0.0 0.0 0.0
0.0 0.0 1.3 5.5 0.0 0.0 0.0 0.0 2.9 12.5 14.5 12.2 11.3 3.2 5.8 2.3 3.7 3.1 4.1 5.9 6.3 10.5 2.2 0.0 4.5 0.2 0.0 0.0 0.2 0.1 0.0 0.0 0.0 2.9 1.7 0.5 1.1 0.2 0.1 0.0 0.0 0.0 0.0 0.0
1.8 8.7 9.0 1.2 0.0 0.7 0.0 21.9 26.7 20.0 21.2 5.8 4.4 2.7 5.3 1.3 6.4 5.4 3.9 11.5 9.5 13.7 3.4 2.3 3.9 3.6 0.6 0.0 0.2 0.0 0.0 0.1 0.0 0.0 0.1 0.9 1.5 2.0 1.0 0.4 1.5 0.9 1.5 1.8
1.8 1.7 1.4 2.7 13.8 26.4 32.0 28.4 10.5 6.7 5.3 5.8 4.4 1.5 1.3 3.3 1.8 7.1 9.9 12.2 10.6 10.7 2.4 7.7 4.6 1.5 0.9 1.2 0.4 0.2 0.1 0.0 0.1 0.1 1.1 0.5 0.5 0.8 0.8 1.9 2.4 2.2 2.2 1.9
2.3 9.5 25.9 26.8 28.4 43.4 31.1 17.1 10.0 8.3 4.8 5.0 3.3 4.3 4.1 5.8 7.2 14.4 13.1 16.6 10.3 4.2 10.4 4.3 1.8 0.4 0.0 0.3 1.1 1.0 0.7 0.1 0.5 0.9 0.0 0.3 0.3 0.3 0.3 0.2 0.1 0.0 0.0 0.2
9.8 26.9 35.5 25.4 24.6 12.4 8.2 4.4 3.4 2.8 3.7 4.4 4.5 5.7 7.3 5.6 13.6 10.6 17.8 8.3 5.0 14.0 8.5 3.7 1.6 1.4 0.9 0.2 0.3 0.5 0.8 0.9 1.1 2.9 2.9 1.4 0.8 0.3 0.1 0.0 0.1 0.0 0.0 0.0
24.8 22.1 22.9 12.8 5.7 3.7 4.1 3.3 3.6 4.0 5.7 8.6 9.9 9.2 8.1 11.9 17.6 10.3 6.7 13.0 10.1 8.8 6.5 4.1 3.9 4.2 3.8 3.8 3.0 2.0 2.3 2.8 3.1 2.3 2.9 3.5 1.9 0.7 0.0 0.1 0.1 0.3 0.3 0.0
22.9 21.5 11.6 3.3 2.5 3.4 2.6 3.5 4.6 4.2 6.0 6.8 11.2 13.5 15.8 14.5 12.1 13.5 8.4 8.7 8.1 7.5 7.0 7.4 6.8 6.5 5.8 6.2 5.5 4.8 4.8 5.2 5.8 5.4 6.0 5.5 5.5 4.6 3.4 2.4 2.3 1.7 1.6 1.2
27.7 11.5 4.2 4.0 2.8 3.0 3.6 4.3 4.9 5.1 7.1 9.8 10.8 18.6 12.6 10.8 13.8 9.2 6.4 8.4 8.2 7.3 6.0 5.3 5.5 5.1 5.5 5.5 4.8 4.9 5.2 5.3 5.7 6.5 7.0 7.6 7.9 7.6 6.4 6.0 6.8 6.3 5.6 4.3

GFSNW_prec_kuchsnow_210.txt.gz
Snowfall_Accumulation
0.0 0.0 0.0 0.0 0.0 0.0 0.0 0.0 5.4 0.0 0.0 2.0 3.0 3.5 1.1 0.0 0.0 0.0 0.0 0.0 0.0 0.0 0.0 0.0 0.0 0.0 0.0 0.0 0.0 0.0 0.0 0.3 1.2 0.2 0.0 0.0 0.0 0.0 0.0 3.4 1.3 2.5 2.9 2.1
0.0 0.0 0.0 0.0 0.0 0.0 0.0 0.0 0.4 0.0 0.0 4.8 2.7 0.0 0.0 0.0 0.0 0.0 0.0 0.0 0.0 0.0 0.0 0.0 0.0 0.0 0.0 0.0 0.0 0.0 0.0 0.7 1.0 1.4 0.3 0.0 0.4 0.0 0.0 0.2 0.8 2.7 2.3 0.1
0.0 0.0 0.0 0.0 0.0 0.0 0.0 0.0 4.7 0.0 0.0 0.0 0.0 0.0 0.1 0.0 0.0 0.0 0.0 0.0 0.0 0.0 0.0 0.0 0.0 0.0 0.0 0.0 0.0 0.0 0.0 0.6 0.9 1.2 2.0 1.9 2.5 0.2 0.1 1.2 6.3 0.1 0.1 0.0
0.0 0.0 0.0 0.0 0.0 0.0 0.0 0.0 0.7 0.0 3.9 0.4 0.0 0.0 0.0 0.0 0.0 0.0 0.0 0.0 0.0 0.0 0.0 0.0 0.0 0.0 0.0 0.0 0.0 0.0 0.0 2.0 0.3 0.4 0.3 2.6 1.7 0.5 0.4 2.7 0.4 2.1 0.0 0.0
0.0 0.0 0.0 0.0 0.0 0.0 0.0 0.0 0.0 0.0 0.0 0.0 0.0 0.0 0.0 0.0 0.0 0.0 0.0 0.0 0.0 0.0 0.0 0.0 0.0 0.0 0.0 0.0 0.0 0.0 0.0 2.8 2.2 2.7 0.7 1.6 1.9 0.2 0.2 0.2 0.0 0.0 0.0 0.0
0.0 0.0 0.0 0.0 0.0 0.0 0.0 0.0 0.0 0.0 0.0 0.0 0.0 0.0 0.0 0.0 0.0 0.0 0.0 0.0 0.0 0.0 0.0 0.0 0.0 0.0 0.0 0.0 0.0 0.0 0.6 3.1 4.8 4.8 0.2 0.7 1.7 0.2 0.1 0.0 0.0 0.0 0.1 0.0
0.0 0.0 0.0 0.0 0.0 0.0 0.0 0.0 0.0 0.0 0.1 0.0 0.0 0.0 0.0 0.0 0.0 0.1 0.0 0.0 0.0 0.0 0.0 0.0 0.0 0.0 0.0 0.0 0.0 0.0 0.0 2.7 4.7 7.9 2.1 5.1 0.0 0.0 0.0 0.0 0.0 0.0 0.0 0.0
0.0 0.0 0.0 0.0 0.0 0.0 0.0 0.0 0.0 0.0 0.5 0.0 0.0 0.0 0.0 0.0 0.0 0.0 0.0 0.0 0.0 0.0 0.0 0.0 0.0 0.0 0.0 0.0 0.0 0.0 0.0 0.3 2.6 3.9 2.3 0.0 0.0 0.0 0.0 0.0 0.0 0.0 0.0 0.0
0.0 0.0 0.0 0.0 0.0 0.0 0.0 0.0 0.0 0.0 0.6 0.0 0.0 0.0 0.0 0.0 0.0 0.0 0.0 0.0 0.0 0.0 0.0 0.0 0.6 0.0 0.0 0.0 0.0 0.0 0.0 0.0 0.8 0.8 2.3 0.7 0.0 0.0 0.0 0.0 0.0 0.0 0.0 0.0
0.0 0.0 0.0 0.0 0.0 0.0 0.0 0.0 0.0 0.0 1.1 0.1 0.0 0.0 0.1 0.0 0.0 0.0 0.0 0.0 0.0 0.0 0.0 0.2 0.3 0.0 0.0 0.0 0.0 0.1 0.1 0.2 1.3 0.9 1.1 0.0 0.0 0.0 0.0 0.0 0.0 0.0 0.0 0.0
0.0 0.0 0.0 0.0 0.0 0.0 0.0 0.0 0.0 0.0 0.8 0.1 0.0 0.0 0.0 0.0 0.0 0.0 0.0 0.0 0.0 0.0 0.4 0.4 0.1 0.1 0.0 0.0 0.0 0.0 0.0 0.1 0.3 0.4 1.4 0.2 0.0 0.0 0.0 0.0 0.0 0.0 0.0 0.0
0.0 0.0 0.0 0.0 0.0 0.0 0.0 0.0 0.0 0.0 0.1 0.0 0.0 0.0 0.0 0.0 0.0 0.0 0.0 0.0 0.0 0.0 1.0 1.2 0.3 0.5 0.3 0.1 0.2 0.0 0.0 0.0 0.2 0.1 0.0 0.0 0.0 0.0 0.0 0.0 0.0 0.0 0.0 0.0
0.0 0.0 0.0 0.0 0.0 0.0 0.0 0.0 0.0 0.0 0.3 0.0 0.0 0.0 0.0 0.0 0.0 0.0 0.2 0.0 0.0 0.0 0.0 0.1 0.3 0.7 0.2 0.4 0.1 0.0 0.0 0.0 0.0 0.0 0.0 0.0 0.0 0.0 0.0 0.0 0.0 0.0 0.0 0.0
0.0 0.0 0.0 0.0 0.0 0.0 0.0 0.0 0.0 0.0 0.2 4.2 0.1 0.0 0.0 0.0 0.0 0.0 0.0 0.0 0.0 0.0 0.4 0.7 1.1 1.2 0.0 0.0 0.1 0.0 0.0 0.0 0.0 0.0 0.0 0.0 0.0 0.0 0.0 0.0 0.0 0.0 0.0 0.0
0.0 0.0 0.0 0.0 0.0 0.0 0.0 0.0 0.0 0.0 0.3 4.5 1.1 0.0 0.0 0.0 0.0 0.0 0.0 0.0 0.0 0.2 0.8 1.9 2.0 0.2 0.4 0.2 0.1 0.0 0.0 0.0 0.0 0.0 0.0 0.0 0.0 0.0 0.0 0.0 0.0 0.0 0.0 0.0
0.0 0.0 0.0 0.0 0.0 0.0 0.0 0.9 0.0 0.0 0.0 3.7 8.7 0.0 0.0 0.0 0.0 0.0 0.0 0.0 0.0 0.8 0.5 2.3 0.1 0.0 0.5 1.7 0.2 0.0 0.0 0.0 0.0 0.0 0.0 0.0 0.0 0.0 0.0 0.0 0.0 0.0 0.0 0.0
0.0 0.0 0.0 0.0 0.0 0.0 0.2 1.0 0.0 0.0 0.0 4.7 19.3 7.6 0.1 0.0 0.0 0.0 0.0 0.0 0.0 1.7 2.2 1.4 1.0 0.4 1.5 2.2 0.7 0.0 0.0 0.0 0.0 0.0 0.0 0.0 0.0 0.0 0.0 0.0 0.0 0.0 0.0 0.0
0.0 0.0 0.0 0.0 0.0 0.0 0.0 0.0 0.0 0.0 1.7 4.8 26.6 16.1 5.6 0.0 0.2 0.7 0.0 0.0 0.2 3.3 1.7 0.4 0.8 0.7 2.4 5.2 0.0 0.0 0.0 0.0 0.0 0.0 0.0 0.0 0.0 0.0 0.0 0.0 0.0 0.0 0.0 0.0
0.0 0.0 0.0 0.0 0.0 0.1 0.0 0.0 0.0 0.0 0.4 22.7 13.0 12.7 7.4 1.2 0.3 0.6 1.0 0.0 5.6 0.2 2.7 0.1 0.4 1.8 6.4 0.0 0.0 0.1 0.0 0.0 0.0 0.0 0.0 0.0 0.0 0.0 0.0 0.0 0.0 0.0 0.0 0.0
0.0 0.0 1.3 5.5 0.0 0.0 0.0 0.0 2.9 12.6 14.9 12.4 11.3 3.2 5.8 2.3 3.7 3.1 4.1 6.0 6.5 11.0 2.4 0.0 4.7 0.2 0.0 0.0 0.2 0.1 0.0 0.0 0.0 2.9 1.7 0.5 1.1 0.2 0.1 0.0 0.0 0.0 0.0 0.0
1.8 8.7 9.0 1.2 0.0 0.7 0.0 21.9 26.7 20.0 21.4 5.9 4.5 2.8 5.4 1.3 6.6 5.6 3.9 11.5 9.5 14.3 3.5 2.5 4.2 4.2 0.6 0.0 0.2 0.0 0.0 0.1 0.0 0.0 0.1 0.9 1.5 2.0 1.0 0.4 1.5 0.9 1.5 1.8
1.8 1.7 1.4 2.7 13.8 26.5 32.1 28.4 10.5 6.7 5.8 6.6 5.5 1.5 1.3 3.3 1.9 7.7 9.9 12.3 10.7 10.7 2.6 8.5 5.2 2.0 0.9 1.2 0.4 0.2 0.1 0.0 0.1 0.1 1.1 0.5 0.5 0.8 0.8 1.9 2.4 2.2 2.2 1.9
2.3 9.5 25.9 26.8 28.4 43.4 31.1 17.1 10.1 9.1 4.8 5.2 3.3 4.3 4.1 5.8 7.5 14.8 13.2 17.0 10.3 4.2 10.6 5.1 2.7 0.4 0.0 0.3 1.1 1.0 0.7 0.1 0.5 0.9 0.0 0.4 0.3 0.3 0.4 0.3 0.1 0.0 0.0 0.2
9.8 26.9 35.5 25.4 24.6 12.4 8.2 4.5 3.5 2.8 3.7 4.4 4.5 5.7 7.3 5.6 13.9 10.6 18.4 8.3 5.0 15.7 10.5 5.4 1.9 1.5 0.9 0.2 0.3 0.6 0.8 0.9 1.3 3.3 3.4 2.2 1.5 0.9 0.4 0.1 0.1 0.0 0.0 0.0
24.8 22.1 22.9 12.8 5.7 3.7 4.1 3.3 3.6 4.0 5.7 8.6 9.9 9.3 8.2 11.9 17.9 10.7 6.7 13.9 12.7 10.3 7.4 4.7 4.1 4.3 3.9 3.8 3.2 2.3 2.4 3.0 3.6 3.0 4.0 5.0 3.1 1.7 0.6 0.5 0.1 0.3 0.3 0.0
22.9 21.5 11.6 3.3 2.5 3.4 2.6 3.5 4.6 4.2 6.0 6.8 11.2 13.6 16.0 14.5 12.4 14.8 10.2 10.2 9.3 8.3 7.6 7.8 6.9 6.6 6.0 6.7 6.1 5.6 5.5 6.1 6.8 6.6 7.6 6.8 7.0 7.0 5.7 3.6 2.8 2.0 1.7 1.2
27.7 11.5 4.2 4.0 2.8 3.0 3.6 4.3 5.0 5.1 7.1 9.8 11.0 18.8 12.6 11.0 15.0 10.1 6.6 9.4 9.0 7.9 6.4 5.7 5.9 5.6 6.0 6.1 5.4 5.5 5.9 6.0 6.7 7.9 8.9 9.8 10.0 9.9 8.8 8.6 9.3 7.9 7.0 5.9

GFSNW_prec_kuchsnow_216.txt.gz
Snowfall_Accumulation
0.0 0.0 0.0 0.0 0.0 0.0 0.0 0.0 5.4 0.0 0.0 2.0 3.0 3.5 1.1 0.0 0.0 0.0 0.0 0.0 0.0 0.0 0.0 0.0 0.0 0.0 0.0 0.0 0.0 0.0 0.0 0.3 1.2 0.2 0.0 0.0 0.0 0.0 0.0 3.4 1.3 2.5 2.9 2.1
0.0 0.0 0.0 0.0 0.0 0.0 0.0 0.0 0.4 0.0 0.0 4.8 2.7 0.0 0.0 0.0 0.0 0.0 0.0 0.0 0.0 0.0 0.0 0.0 0.0 0.0 0.0 0.0 0.0 0.0 0.0 0.7 1.0 1.4 0.3 0.0 0.4 0.0 0.0 0.2 0.8 2.7 2.3 0.1
0.0 0.0 0.0 0.0 0.0 0.0 0.0 0.0 4.7 0.0 0.0 0.0 0.0 0.0 0.1 0.0 0.0 0.0 0.0 0.0 0.0 0.0 0.0 0.0 0.0 0.0 0.0 0.0 0.0 0.0 0.0 0.6 0.9 1.2 2.0 1.9 2.5 0.2 0.1 1.2 6.3 0.1 0.1 0.0
0.0 0.0 0.0 0.0 0.0 0.0 0.0 0.0 0.7 0.0 3.9 0.4 0.0 0.0 0.0 0.0 0.0 0.0 0.0 0.0 0.0 0.0 0.0 0.0 0.0 0.0 0.0 0.0 0.0 0.0 0.0 2.0 0.3 0.4 0.3 2.6 1.7 0.5 0.4 2.7 0.4 2.1 0.0 0.0
0.0 0.0 0.0 0.0 0.0 0.0 0.0 0.0 0.0 0.0 0.0 0.0 0.0 0.0 0.0 0.0 0.0 0.0 0.0 0.0 0.0 0.0 0.0 0.0 0.0 0.0 0.0 0.0 0.0 0.0 0.0 2.8 2.2 2.7 0.7 1.6 1.9 0.2 0.2 0.2 0.0 0.0 0.0 0.0
0.0 0.0 0.0 0.0 0.0 0.0 0.0 0.0 0.0 0.0 0.0 0.0 0.0 0.0 0.0 0.0 0.0 0.0 0.0 0.0 0.0 0.0 0.0 0.0 0.0 0.0 0.0 0.0 0.0 0.0 0.6 3.1 4.8 4.9 0.2 0.7 1.7 0.2 0.1 0.0 0.0 0.0 0.1 0.0
0.0 0.0 0.0 0.0 0.0 0.0 0.0 0.0 0.0 0.0 0.1 0.0 0.0 0.0 0.0 0.0 0.0 0.1 0.0 0.0 0.0 0.0 0.0 0.0 0.0 0.0 0.0 0.0 0.0 0.0 0.0 2.7 4.7 7.9 2.1 5.1 0.0 0.0 0.0 0.0 0.0 0.0 0.0 0.0
0.0 0.0 0.0 0.0 0.0 0.0 0.0 0.0 0.0 0.0 0.5 0.0 0.0 0.0 0.0 0.0 0.0 0.0 0.0 0.0 0.0 0.0 0.0 0.0 0.0 0.0 0.0 0.0 0.0 0.0 0.0 0.3 2.7 3.9 2.3 0.0 0.0 0.0 0.0 0.0 0.0 0.0 0.0 0.0
0.0 0.0 0.0 0.0 0.0 0.0 0.0 0.0 0.0 0.0 0.6 0.0 0.0 0.0 0.0 0.0 0.0 0.0 0.0 0.0 0.0 0.0 0.0 0.0 0.6 0.0 0.0 0.0 0.0 0.0 0.0 0.0 0.8 0.8 2.4 0.7 0.0 0.0 0.0 0.0 0.0 0.0 0.0 0.0
0.0 0.0 0.0 0.0 0.0 0.0 0.0 0.0 0.0 0.0 1.1 0.1 0.0 0.0 0.1 0.0 0.0 0.0 0.0 0.0 0.0 0.0 0.0 0.2 0.3 0.0 0.0 0.0 0.0 0.1 0.1 0.2 1.3 0.9 1.4 0.0 0.0 0.0 0.0 0.0 0.4 0.0 0.0 0.0
0.0 0.0 0.0 0.0 0.0 0.0 0.0 0.0 0.0 0.0 0.9 0.1 0.0 0.0 0.0 0.0 0.0 0.0 0.0 0.0 0.0 0.0 0.4 0.4 0.1 0.1 0.0 0.0 0.0 0.0 0.0 0.1 0.3 0.8 1.9 0.4 0.0 0.0 0.1 0.0 0.0 0.0 0.0 0.0
0.0 0.0 0.0 0.0 0.0 0.0 0.0 0.0 0.0 0.0 0.1 0.0 0.0 0.0 0.0 0.0 0.0 0.0 0.0 0.0 0.0 0.0 1.0 1.2 0.3 0.5 0.3 0.1 0.2 0.0 0.0 0.0 0.2 0.1 0.1 0.0 0.0 0.0 0.0 0.0 0.0 0.0 0.0 0.0
0.0 0.0 0.0 0.0 0.0 0.0 0.0 0.0 0.0 0.0 0.3 0.0 0.0 0.0 0.0 0.0 0.0 0.0 0.2 0.0 0.0 0.0 0.0 0.1 0.3 0.7 0.2 0.4 0.1 0.0 0.0 0.0 0.0 0.0 0.0 0.0 0.0 0.0 0.0 0.0 0.0 0.0 0.0 0.0
0.0 0.0 0.0 0.0 0.0 0.0 0.0 0.0 0.0 0.0 0.3 4.2 0.1 0.0 0.0 0.0 0.0 0.0 0.0 0.0 0.0 0.0 0.4 0.8 1.1 1.2 0.0 0.0 0.1 0.0 0.0 0.0 0.0 0.0 0.0 0.0 0.0 0.0 0.0 0.0 0.0 0.0 0.0 0.0
0.0 0.0 0.0 0.0 0.0 0.0 0.0 0.0 0.0 0.0 0.3 4.5 1.1 0.0 0.0 0.0 0.0 0.0 0.0 0.0 0.0 0.2 0.8 1.9 2.0 0.2 0.4 0.2 0.1 0.0 0.0 0.0 0.0 0.0 0.0 0.0 0.0 0.0 0.0 0.0 0.0 0.0 0.0 0.0
0.0 0.0 0.0 0.0 0.0 0.0 0.0 0.9 0.0 0.0 0.0 3.7 8.7 0.0 0.0 0.0 0.0 0.0 0.0 0.0 0.0 0.8 0.5 2.3 0.1 0.0 0.5 1.7 0.2 0.0 0.0 0.0 0.0 0.0 0.0 0.0 0.0 0.0 0.0 0.0 0.0 0.0 0.0 0.0
0.0 0.0 0.0 0.0 0.0 0.0 0.2 1.0 0.0 0.0 0.0 4.7 19.3 7.6 0.1 0.0 0.0 0.0 0.0 0.0 0.0 1.7 2.2 1.4 1.0 0.4 1.5 2.3 0.7 0.0 0.0 0.0 0.0 0.0 0.0 0.0 0.0 0.0 0.0 0.0 0.0 0.0 0.0 0.0
0.0 0.0 0.0 0.0 0.0 0.0 0.0 0.0 0.0 0.0 1.7 4.8 26.6 16.1 5.6 0.0 0.2 0.7 0.0 0.0 0.2 3.4 1.7 0.4 0.8 0.7 2.4 5.4 0.0 0.0 0.0 0.0 0.0 0.0 0.0 0.0 0.0 0.0 0.0 0.0 0.0 0.0 0.0 0.0
0.0 0.0 0.0 0.0 0.0 0.1 0.0 0.0 0.0 0.0 0.4 22.7 13.0 12.7 7.4 1.2 0.3 0.6 1.0 0.0 5.6 0.3 2.7 0.1 0.4 1.8 6.9 0.5 0.1 0.1 0.0 0.0 0.0 0.0 0.0 0.0 0.0 0.0 0.0 0.0 0.0 0.0 0.0 0.0
0.0 0.0 1.3 5.5 0.0 0.0 0.0 0.0 2.9 12.6 14.9 12.4 11.3 3.2 5.8 2.3 3.7 3.1 4.1 6.0 6.7 11.3 2.4 0.0 4.8 0.6 0.4 0.1 0.2 0.1 0.0 0.0 0.0 3.1 2.0 0.5 1.1 0.2 0.1 0.0 0.0 0.0 0.0 0.0
1.8 8.7 9.0 1.2 0.0 0.7 0.0 21.9 26.7 20.0 21.4 5.9 4.5 2.8 5.4 1.3 6.6 5.6 3.9 11.5 9.5 14.5 3.5 2.9 4.7 5.2 0.8 0.0 0.2 0.0 0.0 0.1 0.0 0.0 0.1 1.0 1.9 2.5 1.3 0.4 1.5 0.9 1.5 1.8
1.8 1.7 1.4 2.7 13.8 26.5 32.1 28.4 10.5 6.7 5.8 6.6 5.7 1.5 1.3 3.3 1.9 7.7 9.9 12.3 10.8 10.7 2.6 9.4 6.3 2.6 1.0 1.2 0.4 0.2 0.1 0.0 0.1 0.1 1.2 0.6 0.6 1.0 1.3 1.9 2.5 2.2 2.3 1.9
2.3 9.5 25.9 26.8 28.4 43.4 31.1 17.1 10.1 9.1 4.9 5.2 3.3 4.3 4.1 5.8 7.5 14.8 13.4 17.2 10.3 4.2 10.6 5.9 3.5 0.8 0.0 0.3 1.1 1.0 0.7 0.1 0.5 0.9 0.0 0.4 0.5 0.3 0.8 1.0 0.1 0.5 0.6 0.5
9.8 26.9 35.5 25.4 24.6 12.4 8.2 4.5 3.5 2.9 3.7 4.4 4.5 5.7 7.3 5.6 13.9 10.6 18.6 8.3 5.0 16.2 11.9 6.6 2.6 1.8 0.9 0.2 0.3 0.6 0.8 0.9 1.3 3.3 3.5 2.5 2.0 1.1 0.9 1.7 1.8 1.5 1.2 0.7
24.8 22.1 22.9 12.8 5.7 3.7 4.2 3.3 3.6 4.0 5.7 8.6 9.9 9.3 8.2 11.9 17.9 10.7 6.7 14.2 14.4 11.4 7.8 5.4 4.5 4.3 3.9 3.9 3.2 2.3 2.4 3.0 3.7 3.3 4.5 5.5 3.4 2.4 2.0 2.8 2.3 1.7 1.5 0.8
22.9 21.5 11.6 3.3 2.5 3.4 2.6 3.5 4.6 4.2 6.0 6.8 11.2 13.6 16.0 14.5 12.4 15.1 10.2 11.1 9.8 8.7 8.2 8.1 6.9 6.6 6.1 6.8 6.1 5.8 5.8 6.4 7.2 7.0 8.2 7.1 7.9 8.8 8.1 5.7 4.8 3.9 3.2 2.5
27.7 11.5 4.2 4.0 2.8 3.0 3.6 4.3 5.0 5.1 7.1 9.8 11.0 18.8 12.6 11.0 15.3 10.5 7.0 9.8 9.5 8.4 6.8 5.8 6.1 5.8 6.2 6.4 5.7 5.7 6.1 6.2 6.9 8.2 9.6 11.2 11.4 10.9 9.4 9.9 11.1 9.2 8.2 6.9

GFSNW_prec_kuchsnow_219.txt.gz
Snowfall_Accumulation
0.0 0.0 0.0 0.0 0.0 0.0 0.0 0.0 5.4 0.0 0.0 2.0 3.0 3.5 1.1 0.0 0.0 0.0 0.0 0.0 0.0 0.0 0.0 0.0 0.0 0.0 0.0 0.0 0.0 0.0 0.0 0.3 1.2 0.2 0.0 0.0 0.0 0.0 0.0 3.4 1.3 2.5 2.9 2.1
0.0 0.0 0.0 0.0 0.0 0.0 0.0 0.0 0.4 0.0 0.0 4.8 2.7 0.0 0.0 0.0 0.0 0.0 0.0 0.0 0.0 0.0 0.0 0.0 0.0 0.0 0.0 0.0 0.0 0.0 0.0 0.7 1.0 1.4 0.3 0.0 0.4 0.0 0.0 0.2 0.8 2.7 2.4 0.1
0.0 0.0 0.0 0.0 0.0 0.0 0.0 0.0 4.7 0.0 0.0 0.0 0.0 0.0 0.1 0.0 0.0 0.0 0.0 0.0 0.0 0.0 0.0 0.0 0.0 0.0 0.0 0.0 0.0 0.0 0.0 0.6 0.9 1.2 2.0 1.9 2.5 0.2 0.1 1.2 6.3 0.1 0.1 0.0
0.0 0.0 0.0 0.0 0.0 0.0 0.0 0.0 0.7 0.0 3.9 0.4 0.0 0.0 0.0 0.0 0.0 0.0 0.0 0.0 0.0 0.0 0.0 0.0 0.0 0.0 0.0 0.0 0.0 0.0 0.0 2.0 0.3 0.4 0.3 2.6 1.7 0.5 0.4 2.7 0.4 2.1 0.0 0.0
0.0 0.0 0.0 0.0 0.0 0.0 0.0 0.0 0.0 0.0 0.0 0.0 0.0 0.0 0.0 0.0 0.0 0.0 0.0 0.0 0.0 0.0 0.0 0.0 0.0 0.0 0.0 0.0 0.0 0.0 0.0 2.8 2.2 2.7 0.7 1.6 1.9 0.2 0.2 0.2 0.0 0.0 0.0 0.0
0.0 0.0 0.0 0.0 0.0 0.0 0.0 0.0 0.0 0.0 0.0 0.0 0.0 0.0 0.0 0.0 0.0 0.0 0.0 0.0 0.0 0.0 0.0 0.0 0.0 0.0 0.0 0.0 0.0 0.0 0.6 3.1 4.8 4.9 0.2 0.7 1.7 0.2 0.1 0.0 0.0 0.0 0.1 0.0
0.0 0.0 0.0 0.0 0.0 0.0 0.0 0.0 0.0 0.0 0.1 0.0 0.0 0.0 0.0 0.0 0.0 0.1 0.0 0.0 0.0 0.0 0.0 0.0 0.0 0.0 0.0 0.0 0.0 0.0 0.0 2.7 4.7 7.9 2.1 5.1 0.0 0.0 0.0 0.0 0.0 0.0 0.0 0.0
0.0 0.0 0.0 0.0 0.0 0.0 0.0 0.0 0.0 0.0 0.5 0.0 0.0 0.0 0.0 0.0 0.0 0.0 0.0 0.0 0.0 0.0 0.0 0.0 0.0 0.0 0.0 0.0 0.0 0.0 0.0 0.3 2.7 3.9 2.3 0.0 0.0 0.0 0.0 0.0 0.0 0.0 0.0 0.0
0.0 0.0 0.0 0.0 0.0 0.0 0.0 0.0 0.0 0.0 0.6 0.0 0.0 0.0 0.0 0.0 0.0 0.0 0.0 0.0 0.0 0.0 0.0 0.0 0.6 0.0 0.0 0.0 0.0 0.0 0.0 0.0 0.8 0.8 2.5 0.7 0.0 0.0 0.0 0.0 0.1 0.0 0.0 0.0
0.0 0.0 0.0 0.0 0.0 0.0 0.0 0.0 0.0 0.0 1.2 0.1 0.0 0.0 0.1 0.0 0.0 0.0 0.0 0.0 0.0 0.0 0.0 0.2 0.3 0.0 0.0 0.0 0.0 0.1 0.1 0.2 1.3 0.9 1.6 0.0 0.0 0.0 0.0 0.0 0.4 0.0 0.0 0.0
0.0 0.0 0.0 0.0 0.0 0.0 0.0 0.0 0.0 0.0 0.9 0.1 0.0 0.0 0.0 0.0 0.0 0.0 0.0 0.0 0.0 0.0 0.4 0.4 0.1 0.1 0.0 0.0 0.0 0.0 0.0 0.1 0.3 0.9 2.1 0.4 0.0 0.0 0.1 0.0 0.0 0.0 0.0 0.0
0.0 0.0 0.0 0.0 0.0 0.0 0.0 0.0 0.0 0.0 0.1 0.0 0.0 0.0 0.0 0.0 0.0 0.0 0.0 0.0 0.0 0.0 1.0 1.2 0.3 0.5 0.3 0.1 0.2 0.0 0.0 0.0 0.2 0.1 0.1 0.0 0.0 0.0 0.0 0.0 0.0 0.0 0.0 0.0
0.0 0.0 0.0 0.0 0.0 0.0 0.0 0.0 0.0 0.0 0.3 0.0 0.0 0.0 0.0 0.0 0.0 0.0 0.2 0.0 0.0 0.0 0.0 0.1 0.3 0.7 0.2 0.4 0.1 0.0 0.0 0.0 0.0 0.0 0.0 0.0 0.0 0.0 0.0 0.0 0.0 0.0 0.0 0.0
0.0 0.0 0.0 0.0 0.0 0.0 0.0 0.0 0.0 0.0 0.3 4.3 0.1 0.0 0.0 0.0 0.0 0.0 0.0 0.0 0.0 0.0 0.4 0.8 1.1 1.2 0.0 0.0 0.1 0.0 0.0 0.0 0.0 0.0 0.0 0.0 0.0 0.0 0.0 0.0 0.0 0.0 0.0 0.0
0.0 0.0 0.0 0.0 0.0 0.0 0.0 0.0 0.0 0.0 0.4 4.6 1.1 0.0 0.0 0.0 0.0 0.0 0.0 0.0 0.0 0.2 0.8 1.9 2.0 0.2 0.4 0.2 0.1 0.0 0.0 0.0 0.0 0.0 0.0 0.0 0.0 0.0 0.0 0.0 0.0 0.0 0.0 0.0
0.0 0.0 0.0 0.0 0.0 0.0 0.0 1.0 0.0 0.0 0.0 3.7 8.7 0.0 0.0 0.0 0.0 0.0 0.0 0.0 0.0 0.8 0.5 2.3 0.1 0.0 0.5 1.7 0.2 0.0 0.0 0.0 0.0 0.0 0.0 0.0 0.0 0.0 0.0 0.0 0.0 0.0 0.0 0.0
0.0 0.0 0.0 0.0 0.0 0.0 0.2 1.0 0.0 0.0 0.0 4.7 19.3 7.6 0.1 0.0 0.0 0.0 0.0 0.0 0.0 1.7 2.2 1.4 1.0 0.4 1.5 2.3 0.7 0.0 0.0 0.0 0.0 0.0 0.0 0.0 0.0 0.0 0.0 0.0 0.0 0.0 0.0 0.0
0.0 0.0 0.0 0.0 0.0 0.0 0.0 0.0 0.0 0.0 1.7 4.8 26.6 16.1 5.6 0.0 0.2 0.7 0.0 0.0 0.2 3.4 1.7 0.4 0.8 0.7 2.4 5.5 0.0 0.0 0.0 0.0 0.0 0.0 0.0 0.0 0.0 0.0 0.0 0.0 0.0 0.0 0.0 0.0
0.0 0.0 0.0 0.0 0.0 0.1 0.0 0.0 0.0 0.0 0.4 22.7 13.0 12.7 7.4 1.2 0.3 0.6 1.0 0.0 5.6 0.4 2.9 0.1 0.4 1.8 7.1 0.6 0.1 0.1 0.0 0.0 0.0 0.0 0.0 0.0 0.0 0.0 0.0 0.0 0.0 0.0 0.0 0.0
0.0 0.0 1.3 5.5 0.0 0.0 0.0 0.0 2.9 12.6 14.9 12.4 11.3 3.2 5.8 2.3 3.7 3.1 4.1 6.0 6.8 11.4 2.4 0.0 4.9 0.8 0.5 0.1 0.2 0.1 0.0 0.0 0.0 3.2 2.0 0.5 1.1 0.2 0.1 0.0 0.0 0.0 0.0 0.0
1.8 8.7 9.0 1.2 0.0 0.7 0.0 21.9 26.7 20.0 21.4 5.9 4.5 2.8 5.4 1.3 6.6 5.6 3.9 11.5 9.5 14.5 3.5 3.2 5.0 5.4 0.8 0.0 0.2 0.0 0.0 0.1 0.0 0.0 0.1 1.0 2.3 2.9 1.6 0.4 1.5 0.9 1.6 1.8
1.8 1.7 1.4 2.7 13.8 26.5 32.1 28.4 10.5 6.7 5.8 6.6 5.7 1.5 1.3 3.3 1.9 7.7 9.9 12.3 10.8 10.7 2.6 9.9 6.7 2.7 1.0 1.2 0.4 0.2 0.1 0.0 0.1 0.1 1.2 0.6 0.6 1.2 1.6 2.1 2.6 2.3 2.4 2.1
2.3 9.5 25.9 26.8 28.4 43.4 31.1 17.1 10.1 9.1 4.9 5.2 3.3 4.3 4.1 5.8 7.5 14.8 13.4 17.2 10.3 4.2 10.6 6.2 3.5 0.8 0.0 0.3 1.1 1.0 0.7 0.1 0.5 0.9 0.0 0.4 0.5 0.3 0.9 1.3 0.1 0.7 1.0 1.3
9.8 26.9 35.5 25.4 24.6 12.4 8.2 4.5 3.5 2.9 3.7 4.4 4.5 5.7 7.3 5.6 13.9 10.6 18.6 8.3 5.0 16.4 12.1 6.6 2.6 1.8 0.9 0.2 0.3 0.6 0.8 0.9 1.3 3.3 3.5 2.5 2.0 1.1 0.9 2.0 2.4 2.3 2.0 1.7
24.8 22.1 22.9 12.8 5.7 3.7 4.2 3.4 3.6 4.0 5.7 8.6 9.9 9.3 8.2 11.9 17.9 10.7 6.7 14.2 14.4 11.5 7.8 5.4 4.5 4.3 3.9 3.9 3.2 2.3 2.4 3.0 3.7 3.3 4.5 5.5 3.4 2.4 2.0 3.1 2.8 2.6 2.6 2.0
22.9 21.5 11.6 3.3 2.5 3.5 2.6 3.5 4.6 4.2 6.0 6.8 11.2 13.6 16.0 14.5 12.4 15.1 10.2 11.1 9.8 8.7 8.2 8.1 6.9 6.6 6.1 6.8 6.1 5.8 5.8 6.5 7.2 7.0 8.2 7.1 7.9 9.2 8.8 5.7 4.8 4.5 4.0 3.2
27.7 11.5 4.2 4.0 2.8 3.0 3.6 4.3 5.0 5.1 7.1 9.8 11.0 18.8 12.6 11.1 15.3 10.5 7.1 9.9 9.5 8.4 6.8 5.8 6.1 5.8 6.2 6.4 5.7 5.7 6.1 6.2 6.9 8.2 9.6 11.2 11.4 10.9 9.4 9.9 11.6 9.9 8.9 7.7

GFSNW_prec_kuchsnow_222.txt.gz
Snowfall_Accumulation
0.0 0.0 0.0 0.0 0.0 0.0 0.0 0.0 5.4 0.0 0.0 2.0 3.0 3.5 1.1 0.0 0.0 0.0 0.0 0.0 0.0 0.0 0.0 0.0 0.0 0.0 0.0 0.0 0.0 0.0 0.0 0.3 1.2 0.2 0.0 0.0 0.0 0.0 0.0 3.4 1.3 2.5 2.9 2.1
0.0 0.0 0.0 0.0 0.0 0.0 0.0 0.0 0.4 0.0 0.0 4.8 2.7 0.0 0.0 0.0 0.0 0.0 0.0 0.0 0.0 0.0 0.0 0.0 0.0 0.0 0.0 0.0 0.0 0.0 0.0 0.7 1.0 1.4 0.3 0.0 0.4 0.0 0.0 0.2 0.8 2.8 2.6 0.1
0.0 0.0 0.0 0.0 0.0 0.0 0.0 0.0 4.7 0.0 0.0 0.0 0.0 0.0 0.1 0.0 0.0 0.0 0.0 0.0 0.0 0.0 0.0 0.0 0.0 0.0 0.0 0.0 0.0 0.0 0.0 0.6 0.9 1.2 2.0 1.9 2.5 0.2 0.1 1.2 6.3 0.1 0.1 0.0
0.0 0.0 0.0 0.0 0.0 0.0 0.0 0.0 0.7 0.0 3.9 0.4 0.0 0.0 0.0 0.0 0.0 0.0 0.0 0.0 0.0 0.0 0.0 0.0 0.0 0.0 0.0 0.0 0.0 0.0 0.0 2.0 0.3 0.4 0.3 2.6 1.7 0.5 0.4 2.7 0.4 2.1 0.0 0.0
0.0 0.0 0.0 0.0 0.0 0.0 0.0 0.0 0.0 0.0 0.0 0.0 0.0 0.0 0.0 0.0 0.0 0.0 0.0 0.0 0.0 0.0 0.0 0.0 0.0 0.0 0.0 0.0 0.0 0.0 0.0 2.8 2.2 2.7 0.7 1.6 1.9 0.2 0.2 0.2 0.0 0.0 0.0 0.0
0.0 0.0 0.0 0.0 0.0 0.0 0.0 0.0 0.0 0.0 0.0 0.0 0.0 0.0 0.0 0.0 0.0 0.0 0.0 0.0 0.0 0.0 0.0 0.0 0.0 0.0 0.0 0.0 0.0 0.0 0.6 3.1 4.8 4.9 0.2 0.7 1.7 0.2 0.1 0.0 0.0 0.0 0.1 0.0
0.0 0.0 0.0 0.0 0.0 0.0 0.0 0.0 0.0 0.0 0.1 0.0 0.0 0.0 0.0 0.0 0.0 0.1 0.0 0.0 0.0 0.0 0.0 0.0 0.0 0.0 0.0 0.0 0.0 0.0 0.0 2.7 4.7 7.9 2.1 5.1 0.0 0.0 0.0 0.0 0.1 0.2 0.0 0.0
0.0 0.0 0.0 0.0 0.0 0.0 0.0 0.0 0.0 0.0 0.5 0.0 0.0 0.0 0.0 0.0 0.0 0.0 0.0 0.0 0.0 0.0 0.0 0.0 0.0 0.0 0.0 0.0 0.0 0.0 0.0 0.3 2.7 3.9 2.3 0.0 0.0 0.0 0.0 0.0 0.1 0.0 0.1 0.0
0.0 0.0 0.0 0.0 0.0 0.0 0.0 0.0 0.0 0.0 0.6 0.0 0.0 0.0 0.0 0.0 0.0 0.0 0.0 0.0 0.0 0.0 0.0 0.0 0.6 0.0 0.0 0.0 0.0 0.0 0.0 0.0 0.8 0.8 2.5 0.7 0.0 0.0 0.0 0.0 0.3 0.0 0.0 0.0
0.0 0.0 0.0 0.0 0.0 0.0 0.0 0.0 0.0 0.0 1.2 0.2 0.0 0.1 0.2 0.0 0.0 0.0 0.0 0.0 0.0 0.0 0.0 0.2 0.3 0.0 0.0 0.0 0.0 0.1 0.1 0.2 1.3 0.9 1.6 0.0 0.0 0.0 0.0 0.0 0.4 0.0 0.0 0.0
0.0 0.0 0.0 0.0 0.0 0.0 0.0 0.0 0.0 0.0 0.9 0.1 0.0 0.0 0.1 0.0 0.0 0.0 0.0 0.0 0.0 0.0 0.4 0.4 0.1 0.1 0.0 0.0 0.0 0.0 0.0 0.1 0.3 1.0 2.3 0.4 0.0 0.0 0.1 0.0 0.0 0.0 0.0 0.0
0.0 0.0 0.0 0.0 0.0 0.0 0.0 0.0 0.0 0.0 0.1 0.8 0.0 0.0 0.0 0.0 0.0 0.0 0.0 0.0 0.0 0.0 1.0 1.2 0.3 0.5 0.3 0.1 0.2 0.0 0.0 0.0 0.2 0.1 0.1 0.0 0.0 0.0 0.0 0.0 0.0 0.0 0.0 0.0
0.0 0.0 0.0 0.0 0.0 0.0 0.0 0.0 0.0 0.0 1.4 0.7 0.2 0.1 0.0 0.0 0.0 0.0 0.2 0.0 0.0 0.0 0.0 0.1 0.3 0.7 0.2 0.4 0.1 0.0 0.0 0.0 0.0 0.0 0.0 0.0 0.0 0.0 0.0 0.0 0.0 0.0 0.0 0.0
0.0 0.0 0.0 0.0 0.0 0.0 0.0 0.0 0.0 0.0 1.0 5.2 0.3 0.0 0.0 0.0 0.0 0.0 0.0 0.0 0.0 0.0 0.4 0.8 1.1 1.2 0.0 0.0 0.1 0.0 0.0 0.0 0.0 0.0 0.0 0.0 0.0 0.0 0.0 0.0 0.0 0.0 0.0 0.0
0.0 0.0 0.0 0.0 0.0 0.0 0.0 0.0 0.0 0.0 0.5 5.2 1.4 0.1 0.0 0.0 0.0 0.0 0.0 0.0 0.0 0.2 0.8 1.9 2.0 0.2 0.4 0.2 0.1 0.0 0.0 0.0 0.0 0.0 0.0 0.0 0.0 0.0 0.0 0.0 0.0 0.0 0.0 0.0
0.0 0.0 0.0 0.0 0.0 0.0 0.0 1.5 0.0 0.0 0.0 3.8 8.9 0.0 0.0 0.0 0.0 0.0 0.0 0.0 0.0 0.8 0.5 2.3 0.1 0.0 0.5 1.7 0.2 0.0 0.0 0.0 0.0 0.0 0.0 0.0 0.0 0.0 0.0 0.0 0.0 0.0 0.0 0.0
0.0 0.0 0.0 0.0 0.0 0.0 0.2 1.0 0.0 0.0 0.0 4.7 19.3 7.6 0.1 0.0 0.0 0.0 0.0 0.0 0.0 1.7 2.2 1.4 1.0 0.4 1.5 2.3 0.7 0.0 0.0 0.0 0.0 0.0 0.0 0.0 0.0 0.0 0.0 0.0 0.0 0.0 0.0 0.0
0.0 0.0 0.0 0.0 0.0 0.0 0.0 0.0 0.0 0.0 1.7 4.8 26.6 16.1 5.6 0.0 0.2 0.7 0.0 0.0 0.2 3.4 1.7 0.4 0.8 0.7 2.4 5.5 0.0 0.0 0.0 0.0 0.0 0.0 0.0 0.0 0.0 0.0 0.0 0.0 0.0 0.0 0.0 0.0
0.0 0.0 0.0 0.0 0.0 0.1 0.0 0.0 0.0 0.0 0.4 22.7 13.0 12.7 7.4 1.2 0.3 0.6 1.0 0.0 5.6 0.4 2.9 0.1 0.4 1.8 7.1 0.6 0.1 0.1 0.0 0.0 0.0 0.0 0.0 0.0 0.0 0.0 0.0 0.0 0.0 0.0 0.0 0.0
0.0 0.0 1.3 5.5 0.0 0.0 0.0 0.0 2.9 12.6 14.9 12.4 11.3 3.2 5.8 2.3 3.7 3.1 4.1 6.0 6.8 11.4 2.4 0.0 5.0 1.0 0.6 0.1 0.2 0.1 0.0 0.0 0.0 3.2 2.0 0.5 1.1 0.2 0.1 0.0 0.0 0.0 0.1 0.1
1.8 8.7 9.1 1.2 0.0 0.7 0.0 21.9 26.7 20.0 21.4 5.9 4.5 2.8 5.4 1.3 6.6 5.6 3.9 11.5 9.5 14.6 3.5 3.4 5.2 5.6 0.8 0.0 0.2 0.0 0.0 0.1 0.0 0.0 0.1 1.0 2.5 3.1 1.7 0.4 1.5 0.9 1.6 2.0
1.8 1.7 1.4 2.7 13.8 26.5 32.1 28.4 10.5 6.7 5.8 6.6 5.7 1.5 1.3 3.3 1.9 7.7 9.9 12.3 10.8 10.7 2.7 10.2 7.0 2.8 1.0 1.2 0.4 0.2 0.1 0.0 0.1 0.1 1.2 0.6 0.6 1.2 1.8 2.1 2.8 2.5 2.5 2.3
2.3 9.5 25.9 26.8 28.4 43.4 31.1 17.1 10.1 9.1 4.9 5.2 3.3 4.3 4.1 5.8 7.5 14.8 13.4 17.2 10.3 4.2 10.7 6.4 3.6 0.8 0.0 0.3 1.1 1.0 0.7 0.1 0.5 0.9 0.0 0.4 0.5 0.3 0.9 1.5 0.1 0.7 1.2 1.7
9.8 26.9 35.5 25.4 24.6 12.4 8.2 4.5 3.5 3.0 3.7 4.4 4.5 5.7 7.3 5.6 13.9 10.6 18.6 8.3 5.0 16.5 12.2 6.6 2.7 1.8 0.9 0.2 0.3 0.6 0.8 0.9 1.3 3.3 3.5 2.5 2.0 1.1 0.9 2.0 2.6 2.7 2.4 2.1
24.8 22.1 22.9 12.8 5.7 3.7 4.2 3.4 3.6 4.0 5.7 8.6 9.9 9.3 8.2 11.9 17.9 10.7 6.7 14.2 14.4 11.5 7.8 5.4 4.6 4.3 3.9 3.9 3.2 2.3 2.4 3.0 3.7 3.3 4.5 5.5 3.4 2.4 2.0 3.1 3.1 2.9 2.9 2.4
22.9 21.5 11.6 3.3 2.5 3.6 2.6 3.5 4.6 4.2 6.0 6.8 11.2 13.6 16.0 14.5 12.4 15.1 10.2 11.1 9.8 8.7 8.3 8.1 6.9 6.6 6.1 6.8 6.1 5.8 5.8 6.5 7.2 7.0 8.2 7.1 7.9 9.4 9.1 5.9 4.9 4.5 4.2 3.5
27.7 11.5 4.2 4.0 2.8 3.0 3.6 4.3 5.0 5.1 7.1 9.8 11.0 18.8 12.6 11.1 15.3 10.5 7.1 9.9 9.5 8.4 6.8 5.8 6.1 5.8 6.2 6.4 5.7 5.7 6.1 6.2 6.9 8.2 9.6 11.2 11.4 10.9 9.4 9.9 11.6 10.2 9.3 8.2

GFSNW_prec_kuchsnow_228.txt.gz
Snowfall_Accumulation
0.0 0.0 0.0 0.0 0.0 0.0 0.0 0.0 5.4 0.0 0.0 2.0 3.0 3.5 1.1 0.0 0.0 0.0 0.0 0.0 0.0 0.0 0.0 0.0 0.0 0.0 0.0 0.0 0.0 0.0 0.0 0.3 1.2 0.2 0.0 0.0 0.0 0.0 0.0 3.4 1.3 2.5 3.0 2.1
0.0 0.0 0.0 0.0 0.0 0.0 0.0 0.0 0.4 0.0 0.0 4.8 2.7 0.0 0.0 0.0 0.0 0.0 0.0 0.0 0.0 0.0 0.0 0.0 0.0 0.0 0.0 0.0 0.0 0.0 0.0 0.7 1.0 1.4 0.3 0.0 0.4 0.0 0.0 0.2 0.8 2.9 2.6 0.1
0.0 0.0 0.0 0.0 0.0 0.0 0.0 0.0 4.7 0.0 0.0 0.0 0.0 0.0 0.1 0.0 0.0 0.0 0.0 0.0 0.0 0.0 0.0 0.0 0.0 0.0 0.0 0.0 0.0 0.0 0.0 0.6 0.9 1.2 2.0 1.9 2.5 0.2 0.1 1.2 6.3 0.1 0.1 0.0
0.0 0.0 0.0 0.0 0.0 0.0 0.0 0.0 0.7 0.0 3.9 0.4 0.0 0.0 0.0 0.0 0.0 0.0 0.0 0.0 0.0 0.0 0.0 0.0 0.0 0.0 0.0 0.0 0.0 0.0 0.0 2.0 0.3 0.4 0.3 2.6 1.7 0.5 0.4 2.7 0.4 2.1 0.0 0.0
0.0 0.0 0.0 0.0 0.0 0.0 0.0 0.0 0.0 0.0 0.0 0.0 0.0 0.0 0.0 0.0 0.0 0.0 0.0 0.0 0.0 0.0 0.0 0.0 0.0 0.0 0.0 0.0 0.0 0.0 0.0 2.8 2.2 2.7 0.7 1.6 1.9 0.2 0.2 0.2 0.0 0.0 0.0 0.0
0.0 0.0 0.0 0.0 0.0 0.0 0.0 0.0 0.0 0.0 0.0 0.0 0.0 0.0 0.0 0.0 0.0 0.0 0.0 0.0 0.0 0.0 0.0 0.0 0.0 0.0 0.0 0.0 0.0 0.0 0.6 3.1 4.8 4.9 0.2 0.7 1.7 0.2 0.1 0.0 0.0 0.0 0.1 0.0
0.0 0.0 0.0 0.0 0.0 0.0 0.0 0.0 0.0 0.0 0.1 0.0 0.0 0.0 0.0 0.0 0.0 0.1 0.0 0.0 0.0 0.0 0.0 0.0 0.0 0.0 0.0 0.0 0.0 0.0 0.0 2.7 4.7 7.9 2.1 5.1 0.0 0.0 0.0 0.0 0.1 0.2 0.1 0.0
0.0 0.0 0.0 0.0 0.0 0.0 0.0 0.0 0.0 0.0 0.5 0.0 0.0 0.0 0.0 0.0 0.0 0.0 0.0 0.0 0.0 0.0 0.0 0.0 0.0 0.0 0.0 0.0 0.0 0.0 0.0 0.3 2.7 3.9 2.3 0.0 0.0 0.0 0.0 0.0 0.3 0.0 0.1 0.0
0.0 0.0 0.0 0.0 0.0 0.0 0.0 0.0 0.0 0.0 0.6 0.0 0.0 0.0 0.0 0.2 0.3 0.1 0.0 0.0 0.0 0.0 0.0 0.0 0.6 0.0 0.0 0.0 0.0 0.0 0.0 0.0 0.8 0.8 2.5 0.7 0.0 0.0 0.0 0.0 0.6 0.0 0.0 0.0
0.0 0.0 0.0 0.0 0.0 0.0 0.0 0.0 0.0 0.0 1.2 0.2 0.0 0.1 0.2 0.0 0.2 0.0 0.0 0.0 0.0 0.0 0.0 0.4 0.5 0.0 0.0 0.0 0.0 0.1 0.1 0.2 1.3 0.9 1.6 0.0 0.0 0.0 0.0 0.1 0.4 0.0 0.0 0.0
0.0 0.0 0.0 0.0 0.0 0.0 0.0 0.0 0.0 0.0 0.9 0.1 0.0 0.0 0.1 0.1 0.0 0.0 0.0 0.0 0.0 0.0 0.4 0.5 0.1 0.1 0.0 0.0 0.0 0.0 0.0 0.1 0.3 1.0 2.3 0.4 0.0 0.0 0.1 0.0 0.0 0.0 0.0 0.0
0.0 0.0 0.0 0.0 0.0 0.0 0.0 0.0 0.0 0.0 0.1 0.8 0.0 0.0 0.0 0.0 0.0 0.0 0.0 0.0 0.1 0.0 1.1 1.2 0.3 0.5 0.3 0.1 0.2 0.0 0.0 0.0 0.2 0.1 0.1 0.0 0.0 0.0 0.0 0.0 0.0 0.0 0.0 0.0
0.0 0.0 0.0 0.0 0.0 0.0 0.0 0.0 0.0 0.0 2.7 1.6 0.8 0.2 0.0 0.0 0.0 0.0 0.3 0.1 0.0 0.0 0.0 0.2 0.3 0.7 0.2 0.4 0.1 0.0 0.0 0.0 0.0 0.0 0.0 0.0 0.0 0.0 0.0 0.0 0.0 0.0 0.0 0.0
0.0 0.0 0.0 0.0 0.0 0.0 0.0 0.0 0.0 0.0 1.0 5.4 0.3 0.0 0.0 0.0 0.0 0.0 0.0 0.0 0.0 0.0 0.4 0.8 1.1 1.2 0.0 0.0 0.1 0.0 0.1 0.0 0.0 0.0 0.0 0.0 0.0 0.0 0.0 0.0 0.0 0.0 0.0 0.0
0.0 0.0 0.0 0.0 0.0 0.0 0.0 0.0 0.0 0.0 0.5 5.2 1.4 0.1 0.0 0.0 0.0 0.0 0.0 0.0 0.0 0.2 0.8 1.9 2.0 0.2 0.4 0.2 0.1 0.0 0.0 0.0 0.0 0.0 0.0 0.0 0.0 0.0 0.0 0.0 0.0 0.0 0.0 0.0
0.0 0.0 0.0 0.0 0.0 0.0 0.0 1.5 0.0 0.0 0.0 3.8 8.9 0.0 0.0 0.0 0.0 0.0 0.0 0.0 0.0 0.8 0.5 2.3 0.1 0.0 0.5 1.7 0.2 0.0 0.0 0.0 0.0 0.0 0.0 0.0 0.0 0.0 0.0 0.0 0.0 0.0 0.0 0.0
0.0 0.0 0.0 0.0 0.0 0.0 0.2 1.0 0.0 0.0 0.0 4.7 19.3 7.6 0.1 0.0 0.0 0.0 0.0 0.0 0.0 1.7 2.2 1.4 1.0 0.4 1.5 2.3 0.7 0.0 0.0 0.0 0.0 0.0 0.0 0.0 0.0 0.0 0.0 0.0 0.0 0.0 0.0 0.0
0.0 0.0 0.0 0.0 0.0 0.0 0.0 0.0 0.0 0.0 1.7 4.8 26.6 16.1 5.6 0.0 0.2 0.7 0.0 0.0 0.2 3.4 1.7 0.4 0.8 0.7 2.4 5.5 0.0 0.0 0.0 0.0 0.0 0.0 0.0 0.0 0.0 0.0 0.0 0.0 0.0 0.0 0.0 0.0
0.0 0.0 0.0 0.0 0.0 0.1 0.0 0.0 0.0 0.0 0.4 22.7 13.0 12.7 7.4 1.2 0.3 0.6 1.0 0.0 5.6 0.4 2.9 0.1 0.4 1.8 7.1 0.6 0.1 0.1 0.0 0.0 0.0 0.0 0.0 0.0 0.0 0.0 0.0 0.0 0.0 0.0 0.0 0.0
0.0 0.0 1.4 6.1 0.1 0.0 0.0 0.0 2.9 12.6 14.9 12.4 11.3 3.2 5.8 2.3 3.7 3.1 4.1 6.0 6.9 11.4 2.4 0.0 5.3 1.2 0.6 0.1 0.2 0.1 0.0 0.0 0.0 3.2 2.0 0.5 1.1 0.2 0.1 0.0 0.0 0.0 0.1 0.2
1.8 9.0 10.1 1.4 0.0 0.7 0.0 21.9 26.7 20.0 21.4 5.9 4.5 2.8 5.4 1.3 6.6 5.6 3.9 11.5 9.5 14.6 3.5 3.5 5.4 5.8 0.9 0.0 0.2 0.0 0.0 0.1 0.0 0.0 0.1 1.0 2.7 3.3 1.9 0.4 1.5 0.9 1.6 2.2
1.8 1.7 1.4 2.7 13.8 26.5 32.1 28.4 10.5 6.7 5.8 6.6 5.7 1.5 1.3 3.3 1.9 7.7 9.9 12.3 10.8 10.7 2.8 10.5 7.2 3.0 1.1 1.2 0.4 0.2 0.1 0.0 0.1 0.1 1.2 0.6 0.6 1.2 1.9 2.2 2.9 2.5 2.5 2.4
2.3 9.7 26.0 26.8 28.4 43.5 31.1 17.1 10.1 9.1 4.9 5.3 3.3 4.3 4.1 5.8 7.5 14.8 13.4 17.2 10.3 4.2 10.9 6.5 3.8 1.0 0.0 0.3 1.1 1.0 0.7 0.1 0.5 0.9 0.0 0.4 0.5 0.3 0.9 1.6 0.1 0.7 1.2 1.7
10.4 27.0 35.5 25.4 24.6 12.4 8.2 4.5 3.5 3.0 3.7 4.4 4.5 5.7 7.3 5.6 13.9 10.6 18.6 8.3 5.0 16.6 12.3 6.6 2.8 2.0 0.9 0.2 0.3 0.6 0.8 0.9 1.3 3.3 3.5 2.5 2.0 1.1 0.9 2.0 2.6 2.9 2.7 2.3
24.9 22.2 23.2 12.8 5.7 3.7 4.2 3.4 3.6 4.1 5.7 8.6 9.9 9.3 8.2 11.9 17.9 10.7 6.7 14.2 14.4 11.5 7.8 5.5 4.8 4.3 3.9 3.9 3.2 2.3 2.4 3.0 3.7 3.3 4.5 5.5 3.4 2.4 2.0 3.1 3.1 3.0 3.0 2.4
23.0 21.5 11.6 3.3 2.5 3.8 2.7 3.5 4.6 4.2 6.0 6.8 11.2 13.6 16.0 14.5 12.4 15.1 10.2 11.1 9.8 8.7 8.5 8.2 6.9 6.6 6.1 6.8 6.1 5.8 5.8 6.5 7.2 7.0 8.2 7.1 7.9 9.4 9.1 5.9 5.0 4.5 4.3 3.5
27.7 11.6 4.2 4.0 2.8 3.0 3.6 4.3 5.0 5.1 7.1 9.8 11.0 18.8 12.6 11.1 15.3 10.5 7.1 9.9 9.5 8.4 6.8 5.8 6.1 5.8 6.2 6.4 5.7 5.7 6.1 6.2 6.9 8.2 9.6 11.2 11.4 10.9 9.4 9.9 11.6 10.2 9.7 8.7

GFSNW_prec_kuchsnow_231.txt.gz
Snowfall_Accumulation
0.0 0.0 0.0 0.0 0.0 0.0 0.0 0.0 5.4 0.0 0.0 2.0 3.0 3.5 1.1 0.0 0.0 0.0 0.0 0.0 0.0 0.0 0.0 0.0 0.0 0.0 0.0 0.0 0.0 0.0 0.0 0.3 1.2 0.2 0.0 0.0 0.0 0.0 0.0 3.4 1.3 2.5 3.0 2.1
0.0 0.0 0.0 0.0 0.0 0.0 0.0 0.0 0.4 0.0 0.0 4.8 2.7 0.0 0.0 0.0 0.0 0.0 0.0 0.0 0.0 0.0 0.0 0.0 0.0 0.0 0.0 0.0 0.0 0.0 0.0 0.7 1.0 1.4 0.3 0.0 0.4 0.0 0.0 0.2 0.8 2.9 2.6 0.1
0.0 0.0 0.0 0.0 0.0 0.0 0.0 0.0 4.7 0.0 0.0 0.0 0.0 0.0 0.1 0.0 0.0 0.0 0.0 0.0 0.0 0.0 0.0 0.0 0.0 0.0 0.0 0.0 0.0 0.0 0.0 0.6 0.9 1.2 2.0 1.9 2.5 0.2 0.1 1.2 6.3 0.1 0.1 0.0
0.0 0.0 0.0 0.0 0.0 0.0 0.0 0.0 0.7 0.0 3.9 0.4 0.0 0.0 0.0 0.0 0.0 0.0 0.0 0.0 0.0 0.0 0.0 0.0 0.0 0.0 0.0 0.0 0.0 0.0 0.0 2.0 0.3 0.4 0.3 2.6 1.7 0.5 0.4 2.7 0.4 2.1 0.0 0.0
0.0 0.0 0.0 0.0 0.0 0.0 0.0 0.0 0.0 0.0 0.0 0.0 0.0 0.0 0.0 0.0 0.0 0.0 0.0 0.0 0.0 0.0 0.0 0.0 0.0 0.0 0.0 0.0 0.0 0.0 0.0 2.8 2.2 2.7 0.7 1.6 1.9 0.2 0.2 0.2 0.0 0.0 0.0 0.0
0.0 0.0 0.0 0.0 0.0 0.0 0.0 0.0 0.0 0.0 0.0 0.0 0.0 0.0 0.0 0.0 0.0 0.0 0.0 0.0 0.0 0.0 0.0 0.0 0.0 0.0 0.0 0.0 0.0 0.0 0.6 3.1 4.8 4.9 0.2 0.7 1.7 0.2 0.1 0.0 0.0 0.0 0.1 0.0
0.0 0.0 0.0 0.0 0.0 0.0 0.0 0.0 0.0 0.0 0.1 0.0 0.0 0.0 0.0 0.0 0.0 0.1 0.0 0.0 0.0 0.0 0.0 0.0 0.0 0.0 0.0 0.0 0.0 0.0 0.0 2.7 4.7 7.9 2.1 5.1 0.0 0.0 0.0 0.0 0.1 0.2 0.1 0.0
0.0 0.0 0.0 0.0 0.0 0.0 0.0 0.0 0.0 0.0 0.5 0.0 0.0 0.0 0.0 0.0 0.0 0.0 0.0 0.0 0.0 0.0 0.0 0.0 0.0 0.0 0.0 0.0 0.0 0.0 0.0 0.3 2.7 3.9 2.3 0.0 0.0 0.0 0.0 0.0 0.3 0.0 0.1 0.0
0.0 0.0 0.0 0.0 0.0 0.0 0.0 0.0 0.0 0.0 0.6 0.0 0.0 0.0 0.0 0.2 0.3 0.1 0.0 0.0 0.0 0.0 0.0 0.0 0.6 0.0 0.0 0.0 0.0 0.0 0.0 0.0 0.8 0.8 2.5 0.7 0.0 0.0 0.0 0.0 0.6 0.0 0.0 0.0
0.0 0.0 0.0 0.0 0.0 0.0 0.0 0.0 0.0 0.0 1.2 0.2 0.0 0.1 0.2 0.0 0.2 0.2 0.0 0.0 0.0 0.0 0.0 0.4 0.5 0.0 0.0 0.0 0.0 0.1 0.1 0.2 1.3 0.9 1.6 0.0 0.0 0.0 0.0 0.1 0.4 0.0 0.0 0.0
0.0 0.0 0.0 0.0 0.0 0.0 0.0 0.0 0.0 0.0 0.9 0.1 0.0 0.0 0.1 0.1 0.0 0.4 0.1 0.0 0.0 0.0 0.4 0.5 0.1 0.1 0.0 0.0 0.0 0.0 0.0 0.1 0.3 1.0 2.3 0.4 0.0 0.0 0.1 0.0 0.0 0.0 0.0 0.0
0.0 0.0 0.0 0.0 0.0 0.0 0.0 0.0 0.0 0.0 0.1 0.8 0.0 0.0 0.0 0.0 0.0 0.0 0.0 0.0 0.1 0.0 1.1 1.2 0.3 0.5 0.3 0.1 0.2 0.0 0.0 0.0 0.2 0.1 0.1 0.0 0.0 0.0 0.0 0.0 0.0 0.0 0.0 0.0
0.0 0.0 0.0 0.0 0.0 0.0 0.0 0.0 0.0 0.0 2.7 1.6 0.8 0.2 0.0 0.0 0.0 0.0 0.3 0.1 0.0 0.0 0.0 0.3 0.3 0.8 0.2 0.4 0.1 0.0 0.0 0.0 0.0 0.0 0.0 0.0 0.0 0.0 0.0 0.0 0.0 0.0 0.0 0.0
0.0 0.0 0.0 0.0 0.0 0.0 0.0 0.0 0.0 0.0 1.0 5.4 0.3 0.0 0.0 0.0 0.0 0.0 0.0 0.0 0.0 0.0 0.4 0.9 1.1 1.2 0.0 0.0 0.1 0.0 0.1 0.0 0.0 0.0 0.0 0.0 0.0 0.0 0.0 0.0 0.0 0.0 0.0 0.0
0.0 0.0 0.0 0.0 0.0 0.0 0.0 0.0 0.0 0.0 0.5 5.2 1.4 0.1 0.0 0.0 0.0 0.0 0.0 0.0 0.0 0.2 0.8 1.9 2.0 0.2 0.4 0.2 0.1 0.0 0.0 0.0 0.0 0.0 0.0 0.0 0.0 0.0 0.0 0.0 0.0 0.0 0.0 0.0
0.0 0.0 0.0 0.0 0.0 0.0 0.0 1.5 0.0 0.0 0.0 3.8 8.9 0.0 0.0 0.0 0.0 0.0 0.0 0.0 0.0 0.8 0.5 2.3 0.1 0.0 0.5 1.7 0.2 0.0 0.0 0.0 0.0 0.0 0.0 0.0 0.0 0.0 0.0 0.0 0.0 0.0 0.0 0.0
0.0 0.0 0.0 0.0 0.0 0.0 0.2 1.0 0.0 0.0 0.0 4.7 19.3 7.6 0.1 0.0 0.0 0.0 0.0 0.0 0.0 1.7 2.2 1.4 1.0 0.4 1.5 2.3 0.7 0.0 0.0 0.0 0.0 0.0 0.0 0.0 0.0 0.0 0.0 0.0 0.0 0.0 0.0 0.0
0.0 0.0 0.0 0.0 0.0 0.0 0.0 0.0 0.0 0.0 1.7 4.8 26.6 16.1 5.6 0.0 0.2 0.7 0.0 0.0 0.2 3.4 1.7 0.4 0.8 0.7 2.4 5.5 0.0 0.0 0.0 0.0 0.0 0.0 0.0 0.0 0.0 0.0 0.0 0.0 0.0 0.0 0.0 0.0
0.0 0.0 0.0 0.0 0.0 0.1 0.0 0.0 0.0 0.0 0.4 22.7 13.0 12.7 7.4 1.2 0.3 0.6 1.0 0.0 5.6 0.4 2.9 0.1 0.4 1.8 7.1 0.6 0.1 0.1 0.0 0.0 0.0 0.0 0.0 0.0 0.0 0.0 0.0 0.0 0.0 0.0 0.0 0.0
0.0 0.0 1.4 6.3 0.1 0.0 0.0 0.0 2.9 12.6 14.9 12.4 11.3 3.2 5.8 2.3 3.7 3.1 4.1 6.0 6.9 11.5 2.4 0.0 5.4 1.2 0.6 0.1 0.2 0.1 0.0 0.0 0.0 3.2 2.0 0.5 1.1 0.2 0.1 0.0 0.0 0.0 0.1 0.2
1.8 9.1 10.3 1.5 0.0 0.7 0.0 21.9 26.7 20.0 21.4 5.9 4.5 2.8 5.4 1.3 6.6 5.6 3.9 11.5 9.5 14.6 3.5 3.7 5.5 6.0 0.9 0.0 0.2 0.0 0.0 0.1 0.0 0.0 0.1 1.0 2.7 3.3 1.9 0.4 1.5 0.9 1.6 2.2
1.8 1.7 1.4 2.7 13.8 26.5 32.1 28.4 10.5 6.7 5.8 6.6 5.7 1.5 1.3 3.3 1.9 7.7 9.9 12.3 10.8 10.7 2.8 10.7 7.3 3.2 1.1 1.2 0.4 0.2 0.1 0.0 0.1 0.1 1.2 0.6 0.6 1.2 1.9 2.2 2.9 2.5 2.5 2.4
2.3 9.8 26.0 26.9 28.4 43.5 31.1 17.1 10.1 9.1 4.9 5.3 3.3 4.3 4.1 5.8 7.5 14.8 13.4 17.2 10.3 4.2 11.0 6.5 3.9 1.0 0.0 0.3 1.1 1.0 0.7 0.1 0.5 0.9 0.0 0.4 0.5 0.3 0.9 1.6 0.1 0.7 1.2 1.7
10.9 27.5 35.9 25.4 24.6 12.4 8.2 4.5 3.5 3.0 3.7 4.4 4.5 5.7 7.3 5.6 13.9 10.6 18.6 8.3 5.0 16.6 12.4 6.6 2.8 2.0 0.9 0.2 0.3 0.6 0.8 0.9 1.3 3.3 3.5 2.5 2.0 1.1 0.9 2.0 2.6 3.0 2.7 2.3
25.8 22.2 23.3 12.8 5.7 3.7 4.2 3.4 3.6 4.1 5.7 8.6 9.9 9.3 8.2 11.9 17.9 10.7 6.7 14.2 14.4 11.5 7.8 5.5 4.9 4.3 3.9 3.9 3.2 2.3 2.4 3.0 3.7 3.3 4.5 5.5 3.4 2.4 2.0 3.1 3.1 3.0 3.0 2.4
23.5 21.5 11.6 3.3 2.5 3.9 2.7 3.5 4.6 4.2 6.0 6.8 11.2 13.6 16.0 14.5 12.4 15.1 10.2 11.1 9.8 8.7 8.5 8.2 6.9 6.6 6.1 6.8 6.1 5.8 5.8 6.5 7.2 7.0 8.2 7.1 7.9 9.4 9.1 5.9 5.0 4.5 4.3 3.5
28.2 11.8 4.2 4.0 2.8 3.1 3.6 4.3 5.0 5.1 7.1 9.8 11.0 18.8 12.6 11.1 15.3 10.5 7.1 9.9 9.5 8.4 6.8 5.8 6.1 5.8 6.2 6.4 5.7 5.7 6.1 6.2 6.9 8.2 9.6 11.2 11.4 10.9 9.4 9.9 11.6 10.2 9.7 8.7

GFSNW_prec_kuchsnow_237.txt.gz
Snowfall_Accumulation
0.0 0.0 0.0 0.0 0.0 0.0 0.0 0.0 5.4 0.0 0.0 2.0 3.0 3.5 1.1 0.0 0.0 0.0 0.0 0.0 0.0 0.0 0.0 0.0 0.0 0.0 0.0 0.0 0.0 0.0 0.0 0.3 1.2 0.2 0.0 0.0 0.0 0.0 0.0 3.4 1.3 2.5 3.4 2.5
0.0 0.0 0.0 0.0 0.0 0.0 0.0 0.0 0.4 0.0 0.0 4.8 2.7 0.0 0.0 0.0 0.0 0.0 0.0 0.0 0.0 0.0 0.0 0.0 0.0 0.0 0.0 0.0 0.0 0.0 0.0 0.7 1.0 1.4 0.3 0.0 0.4 0.0 0.0 0.2 0.8 3.0 4.0 0.5
0.0 0.0 0.0 0.0 0.0 0.0 0.0 0.0 4.7 0.0 0.0 0.0 0.0 0.0 0.1 0.0 0.0 0.0 0.0 0.0 0.0 0.0 0.0 0.0 0.0 0.0 0.0 0.0 0.0 0.0 0.0 0.6 0.9 1.2 2.0 1.9 2.5 0.2 0.1 1.2 6.6 0.6 0.5 0.3
0.0 0.0 0.0 0.0 0.0 0.0 0.0 0.0 0.7 0.0 3.9 0.4 0.0 0.0 0.0 0.0 0.0 0.0 0.0 0.0 0.0 0.0 0.0 0.0 0.0 0.0 0.0 0.0 0.0 0.0 0.0 2.0 0.3 0.4 0.3 2.6 1.7 0.5 0.4 2.7 0.4 2.1 0.0 0.0
0.0 0.0 0.0 0.0 0.0 0.0 0.0 0.0 0.0 0.0 0.0 0.0 0.0 0.0 0.0 0.0 0.0 0.0 0.0 0.0 0.0 0.0 0.0 0.0 0.0 0.0 0.0 0.0 0.0 0.0 0.0 2.8 2.2 2.7 0.7 1.6 1.9 0.2 0.2 0.2 0.0 0.0 0.0 0.0
0.0 0.0 0.0 0.0 0.0 0.0 0.0 0.0 0.0 0.0 0.0 0.0 0.0 0.0 0.0 0.0 0.0 0.0 0.0 0.0 0.0 0.0 0.0 0.0 0.0 0.0 0.0 0.0 0.0 0.0 0.6 3.1 4.8 4.9 0.2 0.7 1.7 0.2 0.1 0.0 0.0 0.0 0.1 0.0
0.0 0.0 0.0 0.0 0.0 0.0 0.0 0.0 0.0 0.0 0.1 0.0 0.0 0.0 0.0 0.0 0.0 0.1 0.0 0.0 0.0 0.0 0.0 0.0 0.0 0.0 0.0 0.0 0.0 0.0 0.0 2.7 4.7 7.9 2.1 5.1 0.0 0.0 0.0 0.0 0.1 0.2 0.1 0.0
0.0 0.0 0.0 0.0 0.0 0.0 0.0 0.0 0.0 0.0 0.5 0.0 0.0 0.0 0.0 0.0 0.0 0.0 0.0 0.0 0.0 0.0 0.0 0.0 0.0 0.0 0.0 0.0 0.0 0.0 0.0 0.3 2.7 3.9 2.3 0.0 0.0 0.0 0.0 0.0 0.3 0.0 0.1 0.0
0.0 0.0 0.0 0.0 0.0 0.0 0.0 0.0 0.0 0.0 0.6 0.0 0.0 0.0 0.0 0.2 0.3 0.1 0.0 0.0 0.0 0.0 0.0 0.0 0.6 0.0 0.0 0.0 0.0 0.0 0.0 0.0 0.8 0.9 3.0 0.7 0.0 0.0 0.0 0.0 0.6 0.0 0.0 0.0
0.0 0.0 0.0 0.0 0.0 0.0 0.0 0.0 0.0 0.0 1.2 0.2 0.0 0.1 0.2 0.0 0.2 0.2 0.0 0.0 0.0 0.0 0.0 0.4 0.5 0.0 0.0 0.0 0.0 0.1 0.1 0.2 1.4 1.0 2.4 0.0 0.0 0.0 0.0 0.1 0.4 0.0 0.0 0.0
0.0 0.0 0.0 0.0 0.0 0.0 0.0 0.0 0.0 0.0 0.9 0.1 0.0 0.0 0.1 0.1 0.0 0.4 0.1 0.0 0.0 0.0 0.4 0.5 0.1 0.1 0.0 0.0 0.0 0.0 0.0 0.2 0.3 1.2 2.9 0.4 0.0 0.0 0.1 0.0 0.0 0.0 0.0 0.0
0.0 0.0 0.0 0.0 0.0 0.0 0.0 0.0 0.0 0.0 0.1 0.8 0.0 0.0 0.0 0.0 0.0 0.0 0.0 0.0 0.1 0.0 1.1 1.2 0.3 0.5 0.3 0.1 0.2 0.0 0.0 0.0 0.2 0.1 0.2 0.0 0.0 0.0 0.0 0.0 0.0 0.0 0.0 0.0
0.0 0.0 0.0 0.0 0.0 0.0 0.0 0.0 0.0 0.0 2.7 1.6 0.8 0.2 0.0 0.0 0.0 0.0 0.3 0.1 0.0 0.0 0.0 0.3 0.6 1.0 0.2 0.5 0.1 0.0 0.0 0.0 0.0 0.0 0.0 0.0 0.0 0.0 0.0 0.0 0.0 0.0 0.0 0.0
0.0 0.0 0.0 0.0 0.0 0.0 0.0 0.0 0.0 0.0 1.0 5.4 0.3 0.0 0.0 0.0 0.0 0.0 0.0 0.0 0.0 0.0 0.4 1.2 1.5 1.2 0.0 0.0 0.1 0.0 0.1 0.0 0.0 0.0 0.0 0.0 0.0 0.0 0.0 0.0 0.0 0.0 0.0 0.0
0.0 0.0 0.0 0.0 0.0 0.0 0.0 0.0 0.0 0.0 0.5 5.2 1.4 0.1 0.0 0.0 0.0 0.0 0.0 0.0 0.0 0.3 0.9 1.9 2.2 0.2 0.4 0.2 0.1 0.0 0.0 0.0 0.0 0.0 0.0 0.0 0.0 0.0 0.0 0.0 0.0 0.0 0.0 0.0
0.0 0.0 0.0 0.0 0.0 0.0 0.0 1.5 0.0 0.0 0.0 3.8 8.9 0.0 0.0 0.0 0.0 0.0 0.0 0.0 0.0 0.8 0.5 2.4 0.1 0.0 0.5 1.7 0.2 0.0 0.0 0.0 0.0 0.0 0.0 0.0 0.0 0.0 0.0 0.0 0.0 0.0 0.0 0.0
0.0 0.0 0.0 0.0 0.0 0.0 0.2 1.0 0.0 0.0 0.0 4.7 19.3 7.6 0.1 0.0 0.0 0.0 0.0 0.0 0.0 1.7 2.2 1.4 1.0 0.4 1.5 2.3 0.7 0.0 0.0 0.0 0.0 0.0 0.0 0.0 0.0 0.0 0.0 0.0 0.0 0.0 0.0 0.0
0.0 0.0 0.0 0.0 0.0 0.0 0.0 0.0 0.0 0.0 1.7 4.8 26.6 16.1 5.6 0.0 0.2 0.7 0.0 0.0 0.2 3.4 1.7 0.4 0.8 0.7 2.4 5.5 0.0 0.0 0.0 0.0 0.0 0.0 0.0 0.0 0.0 0.0 0.0 0.0 0.0 0.0 0.0 0.0
0.0 0.0 0.0 0.0 0.0 0.1 0.0 0.0 0.0 0.0 0.4 22.7 13.0 12.7 7.4 1.2 0.3 0.6 1.0 0.0 5.6 0.4 2.9 0.1 0.4 1.8 7.1 0.6 0.1 0.1 0.0 0.0 0.0 0.0 0.0 0.0 0.0 0.0 0.0 0.0 0.0 0.0 0.0 0.0
0.0 0.0 1.4 6.9 0.4 0.0 0.0 0.0 2.9 12.6 14.9 12.4 11.3 3.2 5.8 2.3 3.7 3.1 4.1 6.0 6.9 11.6 2.4 0.0 5.4 1.2 0.6 0.1 0.2 0.1 0.0 0.0 0.0 3.2 2.0 0.5 1.1 0.2 0.1 0.0 0.0 0.0 0.1 0.2
1.8 9.4 11.1 1.5 0.0 0.7 0.1 22.0 26.7 20.0 21.4 5.9 4.5 2.8 5.4 1.3 6.6 5.6 3.9 11.6 9.5 14.6 3.5 3.7 5.5 6.1 1.0 0.0 0.2 0.0 0.0 0.1 0.0 0.0 0.1 1.0 2.7 3.3 1.9 0.4 1.5 0.9 1.6 2.2
1.8 1.7 1.4 2.7 13.9 26.6 32.3 28.4 10.5 6.7 5.8 6.6 5.7 1.5 1.3 3.3 1.9 7.7 9.9 12.3 10.8 10.7 2.8 10.7 7.3 3.2 1.1 1.2 0.4 0.2 0.1 0.0 0.1 0.1 1.2 0.6 0.6 1.2 1.9 2.2 2.9 2.5 2.5 2.4
2.3 10.0 26.0 26.9 28.7 43.6 31.1 17.1 10.1 9.1 4.9 5.3 3.3 4.3 4.1 5.8 7.5 14.8 13.4 17.2 10.3 4.2 11.1 6.5 3.9 1.0 0.0 0.3 1.1 1.0 0.7 0.1 0.5 0.9 0.0 0.4 0.5 0.3 0.9 1.6 0.1 0.7 1.2 1.7
12.8 28.8 36.9 25.4 24.6 12.4 8.2 4.5 3.5 3.0 3.7 4.4 4.5 5.7 7.3 5.6 13.9 10.6 18.6 8.3 5.0 16.6 12.4 6.6 2.9 2.0 0.9 0.2 0.3 0.6 0.8 0.9 1.3 3.3 3.5 2.5 2.0 1.1 0.9 2.0 2.6 3.0 2.7 2.3
29.5 23.8 23.5 12.8 5.7 3.7 4.2 3.4 3.6 4.1 5.7 8.6 9.9 9.3 8.2 11.9 17.9 10.7 6.7 14.2 14.4 11.5 7.8 5.6 4.9 4.3 3.9 3.9 3.2 2.3 2.4 3.0 3.7 3.3 4.5 5.5 3.4 2.4 2.0 3.1 3.1 3.0 3.0 2.4
26.1 22.1 11.6 3.3 2.5 4.0 2.7 3.5 4.6 4.2 6.0 6.8 11.2 13.6 16.0 14.5 12.4 15.1 10.2 11.1 9.8 8.7 8.6 8.2 6.9 6.6 6.1 6.8 6.1 5.8 5.8 6.5 7.2 7.0 8.2 7.1 7.9 9.4 9.1 5.9 5.0 4.5 4.3 3.5
31.8 12.6 4.2 4.0 2.8 3.1 3.6 4.3 5.0 5.1 7.1 9.8 11.0 18.8 12.6 11.1 15.3 10.5 7.1 9.9 9.5 8.4 6.8 5.8 6.1 5.8 6.2 6.4 5.7 5.7 6.1 6.2 6.9 8.2 9.6 11.2 11.4 10.9 9.4 9.9 11.6 10.2 9.7 8.7

GFSNW_prec_kuchsnow_243.txt.gz
Snowfall_Accumulation
0.0 0.0 0.0 0.0 0.0 0.0 0.0 0.0 5.4 0.0 0.0 2.0 3.0 3.5 1.1 0.0 0.0 0.0 0.0 0.0 0.0 0.0 0.0 0.0 0.0 0.0 0.0 0.0 0.0 0.0 0.0 0.3 1.2 0.2 0.0 0.0 0.0 0.0 0.0 3.4 1.3 2.6 4.8 3.2
0.0 0.0 0.0 0.0 0.0 0.0 0.0 0.0 0.4 0.0 0.0 4.8 2.7 0.0 0.0 0.0 0.0 0.0 0.0 0.0 0.0 0.0 0.0 0.0 0.0 0.0 0.0 0.0 0.0 0.0 0.0 0.7 1.0 1.4 0.3 0.0 0.4 0.0 0.0 0.2 0.8 3.4 5.5 0.5
0.0 0.0 0.0 0.0 0.0 0.0 0.0 0.0 4.7 0.0 0.0 0.0 0.0 0.0 0.1 0.0 0.0 0.0 0.0 0.0 0.0 0.0 0.0 0.0 0.0 0.0 0.0 0.0 0.0 0.0 0.0 0.6 0.9 1.2 2.0 1.9 2.5 0.2 0.1 1.2 6.7 0.6 0.5 0.3
0.0 0.0 0.0 0.0 0.0 0.0 0.0 0.0 0.7 0.0 3.9 0.4 0.0 0.0 0.0 0.0 0.0 0.0 0.0 0.0 0.0 0.0 0.0 0.0 0.0 0.0 0.0 0.0 0.0 0.0 0.0 2.0 0.3 0.4 0.3 2.6 1.7 0.5 0.4 2.7 0.4 2.1 0.0 0.0
0.0 0.0 0.0 0.0 0.0 0.0 0.0 0.0 0.0 0.0 0.0 0.0 0.0 0.0 0.0 0.0 0.0 0.0 0.0 0.0 0.0 0.0 0.0 0.0 0.0 0.0 0.0 0.0 0.0 0.0 0.0 2.8 2.2 2.7 0.7 1.6 1.9 0.2 0.2 0.2 0.0 0.0 0.0 0.0
0.0 0.0 0.0 0.0 0.0 0.0 0.0 0.0 0.0 0.0 0.0 0.0 0.0 0.0 0.0 0.0 0.0 0.0 0.0 0.0 0.0 0.0 0.0 0.0 0.0 0.0 0.0 0.0 0.0 0.0 0.6 3.1 4.8 4.9 0.2 0.7 1.7 0.2 0.1 0.0 0.0 0.0 0.1 0.0
0.0 0.0 0.0 0.0 0.0 0.0 0.0 0.0 0.0 0.0 0.1 0.0 0.0 0.0 0.0 0.0 0.0 0.1 0.0 0.0 0.0 0.0 0.0 0.0 0.0 0.0 0.0 0.0 0.0 0.0 0.0 2.7 4.7 7.9 2.1 5.1 0.0 0.0 0.0 0.0 0.1 0.2 0.1 0.0
0.0 0.0 0.0 0.0 0.0 0.0 0.0 0.0 0.0 0.0 0.5 0.0 0.0 0.0 0.0 0.0 0.0 0.0 0.0 0.0 0.0 0.0 0.0 0.0 0.0 0.0 0.0 0.0 0.0 0.0 0.0 0.3 2.7 3.9 2.3 0.0 0.0 0.0 0.0 0.0 0.3 0.0 0.1 0.0
0.0 0.0 0.0 0.0 0.0 0.0 0.0 0.0 0.0 0.0 0.6 0.0 0.0 0.0 0.0 0.2 0.3 0.1 0.0 0.0 0.0 0.0 0.0 0.0 0.6 0.0 0.0 0.0 0.0 0.0 0.0 0.0 0.8 0.9 3.3 0.7 0.0 0.0 0.0 0.0 0.6 0.0 0.0 0.0
0.0 0.0 0.0 0.0 0.0 0.0 0.0 0.0 0.0 0.0 1.2 0.2 0.0 0.1 0.2 0.0 0.2 0.2 0.0 0.0 0.0 0.0 0.0 0.4 0.5 0.0 0.0 0.0 0.0 0.1 0.1 0.2 1.4 1.0 2.9 0.0 0.0 0.0 0.0 0.1 0.4 0.0 0.0 0.0
0.0 0.0 0.0 0.0 0.0 0.0 0.0 0.0 0.0 0.0 0.9 0.1 0.0 0.0 0.1 0.1 0.0 0.4 0.1 0.0 0.0 0.0 0.4 0.5 0.1 0.1 0.0 0.0 0.0 0.0 0.0 0.2 0.3 1.4 3.4 0.5 0.0 0.0 0.1 0.0 0.0 0.0 0.0 0.0
0.0 0.0 0.0 0.0 0.0 0.0 0.0 0.0 0.0 0.0 0.1 0.8 0.0 0.0 0.0 0.0 0.0 0.0 0.0 0.0 0.1 0.0 1.1 1.2 0.3 0.5 0.3 0.1 0.2 0.0 0.0 0.0 0.2 0.1 0.2 0.0 0.0 0.0 0.0 0.0 0.0 0.0 0.0 0.0
0.0 0.0 0.0 0.0 0.0 0.0 0.0 0.0 0.0 0.0 2.7 1.6 0.8 0.2 0.0 0.0 0.0 0.0 0.3 0.1 0.0 0.0 0.0 0.3 0.6 1.0 0.2 0.5 0.1 0.0 0.0 0.0 0.0 0.0 0.0 0.0 0.0 0.0 0.0 0.0 0.0 0.0 0.0 0.0
0.0 0.0 0.0 0.0 0.0 0.0 0.0 0.0 0.0 0.0 1.0 5.4 0.3 0.0 0.0 0.0 0.0 0.0 0.0 0.0 0.0 0.0 0.4 1.2 1.5 1.2 0.0 0.0 0.1 0.0 0.1 0.0 0.0 0.0 0.0 0.0 0.0 0.0 0.0 0.0 0.0 0.0 0.0 0.0
0.0 0.0 0.0 0.0 0.0 0.0 0.0 0.0 0.0 0.0 0.5 5.2 1.5 0.1 0.0 0.0 0.0 0.0 0.0 0.0 0.0 0.3 1.0 2.1 2.4 0.2 0.4 0.2 0.1 0.0 0.0 0.0 0.0 0.0 0.0 0.0 0.0 0.0 0.0 0.0 0.0 0.0 0.0 0.0
0.0 0.0 0.0 0.0 0.0 0.0 0.0 1.5 0.0 0.0 0.0 3.8 9.0 0.0 0.0 0.0 0.0 0.0 0.0 0.0 0.0 0.8 0.5 2.4 0.1 0.0 0.5 1.8 0.2 0.0 0.0 0.0 0.0 0.0 0.0 0.0 0.0 0.0 0.0 0.0 0.0 0.0 0.0 0.0
0.0 0.0 0.0 0.0 0.0 0.0 0.2 1.0 0.0 0.0 0.0 4.7 19.3 7.6 0.1 0.0 0.0 0.4 0.4 0.2 0.2 1.7 2.2 1.4 1.0 0.4 1.5 2.4 0.7 0.0 0.0 0.0 0.0 0.0 0.0 0.0 0.0 0.0 0.0 0.0 0.0 0.0 0.0 0.0
0.0 0.0 0.0 0.0 0.0 0.0 0.0 0.0 0.0 0.0 1.7 4.8 26.7 16.1 5.6 0.0 0.4 1.1 0.2 0.2 0.3 3.4 1.8 0.4 0.8 0.7 2.5 5.5 0.0 0.0 0.0 0.0 0.0 0.0 0.0 0.0 0.0 0.0 0.0 0.0 0.0 0.0 0.0 0.0
0.0 0.0 0.0 0.0 0.0 0.1 0.0 0.0 0.0 0.0 0.4 22.8 13.1 12.7 7.4 1.2 0.4 0.6 1.0 0.0 5.6 0.4 2.9 0.1 0.4 1.8 7.1 0.6 0.1 0.1 0.0 0.0 0.0 0.0 0.0 0.0 0.0 0.0 0.0 0.0 0.0 0.0 0.0 0.0
0.0 0.0 1.4 7.2 0.6 0.0 0.0 0.0 2.9 12.6 15.0 12.6 11.3 3.2 5.8 2.3 3.7 3.1 4.1 6.0 6.9 11.6 2.4 0.0 5.4 1.2 0.6 0.1 0.2 0.1 0.0 0.0 0.0 3.2 2.0 0.5 1.1 0.2 0.1 0.0 0.0 0.0 0.1 0.2
1.8 9.4 11.7 1.7 0.0 0.7 1.2 23.5 27.8 20.6 21.7 6.1 4.5 2.8 5.4 1.3 6.6 5.6 3.9 11.6 9.5 14.6 3.5 3.7 5.5 6.1 1.0 0.0 0.2 0.0 0.0 0.1 0.0 0.0 0.1 1.0 2.7 3.3 1.9 0.4 1.5 0.9 1.6 2.2
1.8 1.7 1.4 3.0 14.6 27.0 33.1 29.7 11.0 6.7 5.8 6.6 5.7 1.5 1.3 3.4 1.9 7.7 9.9 12.3 10.8 10.7 2.8 10.7 7.3 3.2 1.1 1.2 0.4 0.2 0.1 0.0 0.1 0.1 1.2 0.6 0.6 1.2 1.9 2.2 2.9 2.5 2.5 2.4
2.3 11.6 28.2 27.3 29.7 44.1 31.3 17.1 10.1 9.1 4.9 5.3 3.3 4.3 4.1 5.8 7.5 14.8 13.4 17.2 10.3 4.2 11.2 6.5 3.9 1.0 0.0 0.3 1.1 1.0 0.7 0.1 0.5 0.9 0.0 0.4 0.5 0.3 0.9 1.6 0.1 0.7 1.2 1.7
13.2 31.4 40.3 26.8 24.6 12.4 8.2 4.5 3.5 3.0 3.7 4.4 4.5 5.7 7.3 5.6 13.9 10.6 18.6 8.3 5.0 16.6 12.4 6.6 2.9 2.0 0.9 0.2 0.3 0.6 0.8 0.9 1.3 3.3 3.5 2.5 2.0 1.1 0.9 2.0 2.6 3.0 2.7 2.3
33.0 26.6 25.3 13.7 5.7 3.7 4.2 3.4 3.6 4.1 5.7 8.6 9.9 9.3 8.2 11.9 17.9 10.7 6.7 14.2 14.4 11.5 7.8 5.6 4.9 4.3 3.9 3.9 3.2 2.3 2.4 3.0 3.7 3.3 4.5 5.5 3.4 2.4 2.0 3.1 3.1 3.0 3.0 2.4
29.7 24.7 12.6 3.4 2.5 4.0 2.7 3.5 4.6 4.2 6.0 6.8 11.2 13.6 16.0 14.5 12.4 15.1 10.2 11.1 9.8 8.7 8.6 8.2 6.9 6.6 6.1 6.8 6.1 5.8 5.8 6.5 7.2 7.0 8.2 7.1 7.9 9.4 9.1 5.9 5.0 4.5 4.3 3.6
34.8 12.8 4.8 4.2 2.8 3.1 3.6 4.3 5.0 5.1 7.1 9.8 11.0 18.8 12.6 11.1 15.3 10.5 7.1 9.9 9.5 8.4 6.8 5.8 6.1 5.8 6.2 6.4 5.7 5.7 6.1 6.2 6.9 8.2 9.6 11.2 11.4 10.9 9.4 9.9 11.6 10.2 9.7 8.7

GFSNW_prec_kuchsnow_249.txt.gz
Snowfall_Accumulation
0.0 0.0 0.0 0.0 0.0 0.0 0.0 0.0 5.4 0.0 0.0 2.0 3.0 3.5 1.1 0.0 0.0 0.0 0.0 0.0 0.0 0.0 0.0 0.0 0.0 0.0 0.0 0.0 0.0 0.0 0.0 0.3 1.2 0.2 0.0 0.0 0.0 0.0 0.0 3.4 1.3 2.6 4.8 3.2
0.0 0.0 0.0 0.0 0.0 0.0 0.0 0.0 0.4 0.0 0.0 4.8 2.7 0.0 0.0 0.0 0.0 0.0 0.0 0.0 0.0 0.0 0.0 0.0 0.0 0.0 0.0 0.0 0.0 0.0 0.0 0.7 1.0 1.4 0.3 0.0 0.4 0.0 0.0 0.2 0.8 3.4 5.5 0.5
0.0 0.0 0.0 0.0 0.0 0.0 0.0 0.0 4.7 0.0 0.0 0.0 0.0 0.0 0.1 0.0 0.0 0.0 0.0 0.0 0.0 0.0 0.0 0.0 0.0 0.0 0.0 0.0 0.0 0.0 0.0 0.6 0.9 1.2 2.0 1.9 2.5 0.2 0.1 1.2 6.7 0.6 0.5 0.3
0.0 0.0 0.0 0.0 0.0 0.0 0.0 0.0 0.7 0.0 3.9 0.4 0.0 0.0 0.0 0.0 0.0 0.0 0.0 0.0 0.0 0.0 0.0 0.0 0.0 0.0 0.0 0.0 0.0 0.0 0.0 2.0 0.3 0.4 0.3 2.6 1.7 0.5 0.4 2.7 0.4 2.1 0.0 0.0
0.0 0.0 0.0 0.0 0.0 0.0 0.0 0.0 0.0 0.0 0.0 0.0 0.0 0.0 0.0 0.0 0.0 0.0 0.0 0.0 0.0 0.0 0.0 0.0 0.0 0.0 0.0 0.0 0.0 0.0 0.0 2.8 2.2 2.7 0.7 1.6 1.9 0.2 0.2 0.2 0.0 0.0 0.0 0.0
0.0 0.0 0.0 0.0 0.0 0.0 0.0 0.0 0.0 0.0 0.0 0.0 0.0 0.0 0.0 0.0 0.0 0.0 0.0 0.0 0.0 0.0 0.0 0.0 0.0 0.0 0.0 0.0 0.0 0.0 0.6 3.1 4.8 4.9 0.2 0.7 1.7 0.2 0.1 0.0 0.0 0.0 0.1 0.0
0.0 0.0 0.0 0.0 0.0 0.0 0.0 0.0 0.0 0.0 0.1 0.0 0.0 0.0 0.0 0.0 0.0 0.1 0.0 0.0 0.0 0.0 0.0 0.0 0.0 0.0 0.0 0.0 0.0 0.0 0.0 2.7 4.7 8.0 2.1 5.1 0.0 0.0 0.0 0.0 0.1 0.2 0.1 0.0
0.0 0.0 0.0 0.0 0.0 0.0 0.0 0.0 0.0 0.0 0.5 0.0 0.0 0.0 0.0 0.0 0.0 0.0 0.0 0.0 0.0 0.0 0.0 0.0 0.0 0.0 0.0 0.0 0.0 0.0 0.0 0.3 2.7 3.9 2.3 0.0 0.0 0.0 0.0 0.0 0.3 0.0 0.1 0.0
0.0 0.0 0.0 0.0 0.0 0.0 0.0 0.0 0.0 0.0 0.6 0.0 0.0 0.0 0.0 0.2 0.3 0.1 0.0 0.0 0.0 0.0 0.0 0.0 0.8 0.0 0.0 0.0 0.0 0.0 0.0 0.0 0.8 0.9 3.3 0.7 0.0 0.0 0.0 0.0 0.6 0.0 0.0 0.0
0.0 0.0 0.0 0.0 0.0 0.0 0.0 0.0 0.0 0.0 1.2 0.2 0.0 0.1 0.2 0.0 0.2 0.2 0.0 0.0 0.0 0.0 0.0 0.7 0.7 0.1 0.0 0.0 0.0 0.1 0.1 0.2 1.4 1.0 2.9 0.0 0.0 0.0 0.0 0.1 0.4 0.0 0.0 0.0
0.0 0.0 0.0 0.0 0.0 0.0 0.0 0.0 0.0 0.0 0.9 0.1 0.0 0.0 0.1 0.1 0.0 0.4 0.1 0.0 0.0 0.1 0.6 0.8 0.1 0.2 0.0 0.0 0.0 0.0 0.0 0.2 0.3 1.4 3.4 0.5 0.0 0.0 0.1 0.0 0.0 0.0 0.0 0.0
0.0 0.0 0.0 0.0 0.0 0.0 0.0 0.0 0.0 0.0 0.1 0.8 0.0 0.0 0.0 0.0 0.0 0.0 0.0 0.0 0.1 0.0 1.1 1.3 0.4 0.6 0.3 0.1 0.2 0.0 0.0 0.0 0.2 0.1 0.2 0.0 0.0 0.0 0.0 0.0 0.0 0.0 0.0 0.0
0.0 0.0 0.0 0.0 0.0 0.0 0.0 0.0 0.0 0.0 2.7 1.6 0.8 0.2 0.0 0.0 0.0 0.0 0.3 0.1 0.0 0.0 0.0 0.4 1.1 1.5 0.2 0.6 0.1 0.0 0.0 0.0 0.0 0.0 0.0 0.0 0.0 0.0 0.0 0.0 0.0 0.0 0.0 0.0
0.0 0.0 0.0 0.0 0.0 0.0 0.0 0.0 0.0 0.0 1.0 5.4 0.3 0.0 0.0 0.0 0.0 0.0 0.0 0.0 0.0 0.0 0.4 2.2 2.5 1.8 0.2 0.2 0.1 0.0 0.1 0.0 0.0 0.0 0.0 0.0 0.0 0.0 0.0 0.0 0.0 0.0 0.0 0.0
0.0 0.0 0.0 0.0 0.0 0.0 0.0 0.0 0.0 0.0 0.5 5.2 1.5 0.4 0.1 0.0 0.0 0.0 0.0 0.0 0.0 0.5 2.0 3.0 3.1 0.5 0.7 0.7 0.4 0.1 0.0 0.0 0.0 0.0 0.0 0.0 0.0 0.0 0.0 0.0 0.0 0.0 0.0 0.0
0.0 0.0 0.0 0.0 0.0 0.0 0.0 1.5 0.0 0.0 0.0 3.8 9.9 0.1 0.1 0.0 0.0 0.0 0.0 0.0 0.0 1.3 1.0 2.9 0.5 0.1 0.7 2.6 0.3 0.0 0.0 0.0 0.0 0.0 0.0 0.0 0.0 0.0 0.0 0.0 0.0 0.0 0.0 0.0
0.0 0.0 0.0 0.0 0.0 0.0 0.2 1.0 0.0 0.0 0.0 4.7 19.8 7.7 0.1 0.0 0.1 0.6 0.8 0.5 0.6 2.1 2.8 1.8 1.2 0.5 1.7 2.8 0.7 0.0 0.0 0.0 0.0 0.0 0.0 0.0 0.0 0.0 0.0 0.0 0.0 0.0 0.0 0.0
0.0 0.0 0.0 0.0 0.0 0.0 0.0 0.0 0.0 0.0 1.7 4.8 27.3 16.1 5.6 0.0 0.6 1.4 0.4 0.3 0.5 3.7 1.9 0.5 0.8 0.7 2.5 5.5 0.0 0.0 0.0 0.0 0.0 0.0 0.0 0.0 0.0 0.0 0.0 0.0 0.0 0.0 0.0 0.0
0.0 0.0 0.0 0.0 0.0 0.1 0.0 0.0 0.0 0.0 0.4 22.9 13.2 12.7 7.4 1.2 0.4 1.1 1.2 0.2 5.7 0.4 2.9 0.1 0.4 1.8 7.1 0.6 0.1 0.1 0.0 0.0 0.0 0.0 0.0 0.0 0.0 0.0 0.0 0.0 0.0 0.0 0.0 0.0
0.0 0.0 1.4 7.2 0.6 0.0 0.0 0.0 2.9 12.6 15.5 13.5 11.5 3.2 5.8 2.3 3.7 3.6 4.6 6.2 6.9 11.6 2.4 0.0 5.4 1.2 0.6 0.1 0.2 0.1 0.0 0.0 0.0 3.2 2.0 0.5 1.1 0.2 0.1 0.0 0.0 0.0 0.1 0.2
1.8 9.4 11.7 1.7 0.0 0.7 1.2 24.6 28.9 21.4 22.3 6.6 4.7 2.8 5.4 1.3 7.2 6.8 5.3 12.3 9.6 14.6 3.5 3.7 5.5 6.1 1.0 0.0 0.2 0.0 0.0 0.1 0.0 0.0 0.1 1.0 2.7 3.3 1.9 0.4 1.5 0.9 1.6 2.2
1.8 1.7 1.4 3.0 15.0 27.8 34.2 30.9 11.5 6.8 5.8 6.6 5.7 1.5 1.3 3.7 2.0 8.5 10.8 12.5 10.8 10.7 2.8 10.7 7.3 3.2 1.1 1.2 0.4 0.2 0.1 0.0 0.1 0.1 1.2 0.6 0.6 1.2 1.9 2.2 2.9 2.5 2.5 2.4
2.3 12.1 28.6 27.8 30.6 44.9 32.2 17.1 10.1 9.1 4.9 5.3 3.3 4.3 4.1 5.9 7.8 15.4 13.8 17.2 10.3 4.2 11.3 6.5 3.9 1.0 0.0 0.3 1.1 1.0 0.7 0.1 0.5 0.9 0.0 0.4 0.5 0.3 0.9 1.6 0.1 0.7 1.2 1.7
13.5 31.6 40.6 26.8 24.9 12.4 8.2 4.5 3.5 3.0 3.7 4.4 4.5 5.7 7.3 5.6 14.0 10.6 18.6 8.3 5.0 16.6 12.4 6.6 2.9 2.0 0.9 0.2 0.3 0.6 0.8 0.9 1.3 3.3 3.5 2.5 2.0 1.1 0.9 2.0 2.6 3.0 2.7 2.3
33.6 27.0 25.3 13.7 5.7 3.7 4.2 3.4 3.6 4.1 5.7 8.6 9.9 9.3 8.2 11.9 18.0 10.7 6.7 14.2 14.4 11.5 7.8 5.6 4.9 4.3 3.9 3.9 3.2 2.3 2.4 3.0 3.7 3.3 4.5 5.5 3.4 2.4 2.0 3.1 3.1 3.0 3.0 2.4
30.7 25.2 12.6 3.4 2.5 4.0 2.7 3.5 4.6 4.2 6.0 6.8 11.3 13.7 16.0 14.5 12.4 15.1 10.2 11.1 9.8 8.7 8.6 8.2 6.9 6.6 6.1 6.8 6.1 5.8 5.8 6.5 7.2 7.0 8.2 7.1 7.9 9.4 9.1 5.9 5.0 4.5 4.3 3.6
36.3 12.8 4.8 4.2 2.8 3.1 3.6 4.3 5.0 5.3 7.3 10.0 11.3 19.0 12.6 11.1 15.3 10.5 7.1 9.9 9.5 8.4 6.8 5.8 6.1 5.8 6.2 6.4 5.7 5.7 6.1 6.2 6.9 8.2 9.6 11.2 11.4 10.9 9.4 9.9 11.6 10.2 9.7 8.8

GFSNW_prec_kuchsnow_252.txt.gz
Snowfall_Accumulation
0.0 0.0 0.0 0.0 0.0 0.0 0.0 0.0 5.4 0.0 0.0 2.0 3.0 3.5 1.1 0.0 0.0 0.0 0.0 0.0 0.0 0.0 0.0 0.0 0.0 0.0 0.0 0.0 0.0 0.0 0.0 0.3 1.2 0.2 0.0 0.0 0.0 0.0 0.0 3.4 1.3 2.6 4.8 3.2
0.0 0.0 0.0 0.0 0.0 0.0 0.0 0.0 0.4 0.0 0.0 4.8 2.7 0.0 0.0 0.0 0.0 0.0 0.0 0.0 0.0 0.0 0.0 0.0 0.0 0.0 0.0 0.0 0.0 0.0 0.0 0.7 1.0 1.4 0.3 0.0 0.4 0.0 0.0 0.2 0.8 3.4 5.5 0.5
0.0 0.0 0.0 0.0 0.0 0.0 0.0 0.0 4.7 0.0 0.0 0.0 0.0 0.0 0.1 0.0 0.0 0.0 0.0 0.0 0.0 0.0 0.0 0.0 0.0 0.0 0.0 0.0 0.0 0.0 0.0 0.6 0.9 1.2 2.0 1.9 2.5 0.2 0.1 1.2 6.7 0.6 0.5 0.3
0.0 0.0 0.0 0.0 0.0 0.0 0.0 0.0 0.7 0.0 3.9 0.4 0.0 0.0 0.0 0.0 0.0 0.0 0.0 0.0 0.0 0.0 0.0 0.0 0.0 0.0 0.0 0.0 0.0 0.0 0.0 2.0 0.3 0.4 0.3 2.6 1.7 0.5 0.4 2.7 0.4 2.1 0.0 0.0
0.0 0.0 0.0 0.0 0.0 0.0 0.0 0.0 0.0 0.0 0.0 0.0 0.0 0.0 0.0 0.0 0.0 0.0 0.0 0.0 0.0 0.0 0.0 0.0 0.0 0.0 0.0 0.0 0.0 0.0 0.0 2.8 2.2 2.7 0.7 1.6 1.9 0.2 0.2 0.2 0.0 0.0 0.0 0.0
0.0 0.0 0.0 0.0 0.0 0.0 0.0 0.0 0.0 0.0 0.0 0.0 0.0 0.0 0.0 0.0 0.0 0.0 0.0 0.0 0.0 0.0 0.0 0.0 0.0 0.0 0.0 0.0 0.0 0.0 0.6 3.1 4.9 5.0 0.2 0.7 1.7 0.2 0.1 0.0 0.0 0.0 0.1 0.0
0.0 0.0 0.0 0.0 0.0 0.0 0.0 0.0 0.0 0.0 0.1 0.0 0.0 0.0 0.0 0.0 0.0 0.1 0.0 0.0 0.0 0.0 0.0 0.0 0.0 0.0 0.0 0.0 0.0 0.0 0.0 2.7 4.8 8.1 2.1 5.1 0.0 0.0 0.0 0.0 0.1 0.2 0.1 0.0
0.0 0.0 0.0 0.0 0.0 0.0 0.0 0.0 0.0 0.0 0.5 0.0 0.0 0.0 0.0 0.0 0.0 0.0 0.0 0.0 0.0 0.0 0.0 0.0 0.0 0.0 0.0 0.0 0.0 0.0 0.0 0.3 2.9 4.1 2.3 0.0 0.0 0.0 0.0 0.0 0.3 0.0 0.1 0.0
0.0 0.0 0.0 0.0 0.0 0.0 0.0 0.0 0.0 0.0 0.6 0.0 0.0 0.0 0.0 0.2 0.3 0.1 0.0 0.0 0.0 0.0 0.0 0.0 0.8 0.0 0.0 0.0 0.0 0.0 0.0 0.0 0.9 0.9 3.3 0.7 0.0 0.0 0.0 0.0 0.6 0.0 0.0 0.0
0.0 0.0 0.0 0.0 0.0 0.0 0.0 0.0 0.0 0.0 1.2 0.2 0.0 0.1 0.2 0.0 0.2 0.2 0.0 0.0 0.0 0.0 0.0 0.8 0.8 0.1 0.0 0.0 0.0 0.1 0.1 0.2 1.5 1.0 3.0 0.0 0.0 0.0 0.0 0.1 0.4 0.0 0.0 0.0
0.0 0.0 0.0 0.0 0.0 0.0 0.0 0.0 0.0 0.0 0.9 0.1 0.0 0.0 0.1 0.1 0.0 0.4 0.1 0.0 0.0 0.1 0.8 0.8 0.1 0.3 0.0 0.0 0.0 0.0 0.0 0.2 0.3 1.5 3.6 0.5 0.0 0.0 0.1 0.0 0.0 0.0 0.0 0.0
0.0 0.0 0.0 0.0 0.0 0.0 0.0 0.0 0.0 0.0 0.1 0.8 0.0 0.0 0.0 0.0 0.0 0.0 0.0 0.0 0.1 0.0 1.1 1.3 0.5 0.9 0.5 0.1 0.3 0.0 0.0 0.0 0.2 0.1 0.2 0.0 0.0 0.0 0.0 0.0 0.0 0.0 0.0 0.0
0.0 0.0 0.0 0.0 0.0 0.0 0.0 0.0 0.0 0.0 2.7 1.6 0.8 0.2 0.0 0.0 0.0 0.0 0.3 0.1 0.0 0.0 0.0 0.4 1.1 2.1 0.4 0.7 0.1 0.0 0.0 0.0 0.0 0.0 0.0 0.0 0.0 0.0 0.0 0.0 0.0 0.0 0.0 0.0
0.0 0.0 0.0 0.0 0.0 0.0 0.0 0.0 0.0 0.0 1.0 5.4 0.3 0.0 0.0 0.0 0.0 0.0 0.0 0.0 0.0 0.0 0.4 2.2 3.2 2.3 0.4 0.3 0.1 0.0 0.1 0.0 0.0 0.0 0.0 0.0 0.0 0.0 0.0 0.0 0.0 0.0 0.0 0.0
0.0 0.0 0.0 0.0 0.0 0.0 0.0 0.0 0.0 0.0 0.5 5.2 1.5 0.4 0.1 0.0 0.0 0.0 0.0 0.0 0.0 0.5 2.0 3.5 3.5 0.7 0.9 0.9 0.6 0.2 0.0 0.0 0.0 0.0 0.0 0.0 0.0 0.0 0.0 0.0 0.0 0.0 0.0 0.0
0.0 0.0 0.0 0.0 0.0 0.0 0.0 1.5 0.0 0.0 0.0 3.8 9.9 0.4 0.3 0.0 0.0 0.0 0.0 0.0 0.0 1.3 1.0 3.1 0.6 0.1 0.7 3.3 0.5 0.0 0.0 0.0 0.0 0.0 0.0 0.0 0.0 0.0 0.0 0.0 0.0 0.0 0.0 0.0
0.0 0.0 0.0 0.0 0.0 0.0 0.2 1.0 0.0 0.0 0.0 4.7 22.3 9.0 0.7 0.5 0.5 1.0 1.2 0.8 0.9 2.4 3.0 2.0 1.2 0.6 2.0 3.2 0.7 0.0 0.0 0.0 0.0 0.0 0.0 0.0 0.0 0.0 0.0 0.0 0.0 0.0 0.0 0.0
0.0 0.0 0.0 0.0 0.0 0.0 0.0 0.0 0.0 0.0 1.7 4.8 29.2 17.2 5.8 0.1 0.8 1.7 0.6 0.6 0.7 3.8 2.0 0.5 0.8 0.7 2.5 5.5 0.0 0.0 0.0 0.0 0.0 0.0 0.0 0.0 0.0 0.0 0.0 0.0 0.0 0.0 0.0 0.0
0.0 0.0 0.0 0.0 0.0 0.1 0.0 0.0 0.0 0.0 0.4 23.8 13.7 12.7 7.4 1.2 0.4 1.2 1.4 0.5 6.0 0.5 2.9 0.1 0.4 1.8 7.1 0.6 0.1 0.1 0.0 0.0 0.0 0.0 0.0 0.0 0.0 0.0 0.0 0.0 0.0 0.0 0.0 0.0
0.0 0.0 1.4 7.7 1.2 0.0 0.0 0.0 2.9 12.6 15.5 13.9 11.6 3.2 5.8 2.3 3.9 4.3 5.5 6.6 6.9 11.6 2.4 0.0 5.4 1.2 0.6 0.1 0.2 0.1 0.0 0.0 0.0 3.2 2.0 0.5 1.1 0.2 0.1 0.0 0.0 0.0 0.1 0.2
1.8 9.4 11.7 1.7 0.0 0.7 1.2 25.9 29.7 22.5 23.0 7.0 4.9 2.8 5.4 1.5 7.9 7.8 6.1 12.6 9.6 14.6 3.5 3.7 5.5 6.1 1.0 0.0 0.2 0.0 0.0 0.1 0.0 0.0 0.1 1.0 2.7 3.3 1.9 0.4 1.5 0.9 1.6 2.2
1.8 1.7 1.4 3.0 15.0 28.0 34.6 31.8 12.2 7.3 6.3 7.0 5.9 1.9 1.8 4.2 2.3 9.1 11.2 12.7 11.1 10.8 2.8 10.7 7.3 3.2 1.1 1.2 0.4 0.2 0.1 0.0 0.1 0.1 1.2 0.6 0.6 1.2 1.9 2.2 2.9 2.5 2.5 2.4
2.3 12.8 29.0 27.8 30.6 45.0 32.2 17.2 10.2 9.4 5.2 5.6 3.6 4.6 4.3 6.2 8.1 16.0 14.3 17.7 10.5 4.2 11.3 6.5 3.9 1.0 0.0 0.3 1.1 1.0 0.7 0.1 0.5 0.9 0.0 0.4 0.5 0.3 0.9 1.6 0.1 0.7 1.2 1.7
14.6 32.5 41.2 26.8 24.9 12.4 8.2 4.5 3.5 3.0 3.7 4.4 4.5 5.7 7.4 5.6 14.1 10.9 18.9 8.5 5.0 16.6 12.4 6.6 2.9 2.0 0.9 0.2 0.3 0.6 0.8 0.9 1.3 3.3 3.5 2.5 2.0 1.1 0.9 2.0 2.6 3.0 2.7 2.3
34.2 27.3 25.5 13.7 5.7 3.7 4.2 3.4 3.6 4.1 5.7 8.6 9.9 9.3 8.2 11.9 18.7 10.8 6.7 14.3 14.4 11.5 7.8 5.6 4.9 4.3 3.9 3.9 3.2 2.3 2.4 3.0 3.7 3.3 4.5 5.5 3.4 2.4 2.0 3.1 3.1 3.0 3.0 2.4
31.4 25.7 12.7 3.4 2.5 4.0 2.7 3.5 4.6 4.2 6.0 6.9 11.3 13.7 16.7 15.2 12.7 15.1 10.2 11.1 9.8 8.7 8.6 8.2 6.9 6.6 6.1 6.8 6.1 5.8 5.8 6.5 7.2 7.0 8.2 7.1 7.9 9.4 9.1 5.9 5.0 4.5 4.3 3.6
36.8 12.8 4.8 4.2 2.8 3.1 3.6 4.3 5.0 5.3 7.3 10.0 12.2 20.0 13.5 11.8 15.6 10.5 7.1 9.9 9.5 8.4 6.8 5.8 6.1 5.8 6.2 6.4 5.7 5.7 6.1 6.2 6.9 8.2 9.6 11.2 11.4 10.9 9.4 9.9 11.6 10.2 9.7 8.8

GFSNW_prec_kuchsnow_258.txt.gz
Snowfall_Accumulation
0.0 0.0 0.0 0.0 0.0 0.0 0.0 0.0 5.4 0.0 0.0 2.0 3.0 3.5 1.1 0.0 0.0 0.0 0.0 0.0 0.0 0.0 0.0 0.0 0.0 0.0 0.0 0.0 0.0 0.0 0.0 0.3 1.2 0.2 0.0 0.0 0.0 0.0 0.0 3.4 1.3 2.6 4.8 3.2
0.0 0.0 0.0 0.0 0.0 0.0 0.0 0.0 0.4 0.0 0.0 4.8 2.7 0.0 0.0 0.0 0.0 0.0 0.0 0.0 0.0 0.0 0.0 0.0 0.0 0.0 0.0 0.0 0.0 0.0 0.0 0.7 1.0 1.4 0.3 0.0 0.4 0.0 0.0 0.2 0.8 3.4 5.5 0.5
0.0 0.0 0.0 0.0 0.0 0.0 0.0 0.0 4.7 0.0 0.0 0.0 0.0 0.0 0.1 0.0 0.0 0.0 0.0 0.0 0.0 0.0 0.0 0.0 0.0 0.0 0.0 0.0 0.0 0.0 0.0 0.6 0.9 1.2 2.0 1.9 2.5 0.2 0.1 1.2 6.7 0.6 0.5 0.3
0.0 0.0 0.0 0.0 0.0 0.0 0.0 0.0 0.7 0.0 3.9 0.4 0.0 0.0 0.0 0.0 0.0 0.0 0.0 0.0 0.0 0.0 0.0 0.0 0.0 0.0 0.0 0.0 0.0 0.0 0.0 2.0 0.3 0.4 0.3 2.6 1.7 0.5 0.4 2.7 0.4 2.1 0.0 0.0
0.0 0.0 0.0 0.0 0.0 0.0 0.0 0.0 0.0 0.0 0.0 0.0 0.0 0.0 0.0 0.0 0.0 0.0 0.0 0.0 0.0 0.0 0.0 0.0 0.0 0.0 0.0 0.0 0.0 0.0 0.0 2.8 2.2 2.7 0.7 1.6 1.9 0.2 0.2 0.2 0.0 0.0 0.0 0.0
0.0 0.0 0.0 0.0 0.0 0.0 0.0 0.0 0.0 0.0 0.0 0.0 0.0 0.0 0.0 0.0 0.0 0.0 0.0 0.0 0.0 0.0 0.0 0.0 0.0 0.0 0.0 0.0 0.0 0.0 0.6 3.1 4.9 5.0 0.2 0.7 1.7 0.2 0.1 0.0 0.0 0.0 0.1 0.0
0.0 0.0 0.0 0.0 0.0 0.0 0.0 0.0 0.0 0.0 0.1 0.0 0.0 0.0 0.0 0.0 0.0 0.1 0.0 0.0 0.0 0.0 0.0 0.0 0.0 0.0 0.0 0.0 0.0 0.0 0.0 2.7 4.8 8.2 2.1 5.1 0.0 0.0 0.0 0.0 0.1 0.2 0.1 0.0
0.0 0.0 0.0 0.0 0.0 0.0 0.0 0.0 0.0 0.0 0.5 0.0 0.0 0.0 0.0 0.0 0.0 0.0 0.0 0.0 0.0 0.0 0.0 0.0 0.0 0.0 0.0 0.0 0.0 0.0 0.0 0.3 3.0 4.3 2.3 0.0 0.0 0.0 0.0 0.0 0.3 0.0 0.1 0.0
0.0 0.0 0.0 0.0 0.0 0.0 0.0 0.0 0.0 0.0 0.6 0.0 0.0 0.0 0.0 0.2 0.3 0.1 0.0 0.0 0.0 0.0 0.0 0.0 0.8 0.0 0.0 0.0 0.0 0.0 0.0 0.0 1.3 1.2 3.6 0.7 0.0 0.0 0.0 0.0 0.6 0.0 0.0 0.0
0.0 0.0 0.0 0.0 0.0 0.0 0.0 0.0 0.0 0.0 1.2 0.2 0.0 0.1 0.2 0.0 0.2 0.2 0.0 0.0 0.0 0.0 0.0 0.8 0.8 0.1 0.0 0.0 0.0 0.1 0.1 0.3 2.0 1.1 3.6 0.0 0.0 0.0 0.0 0.1 0.4 0.0 0.0 0.0
0.0 0.0 0.0 0.0 0.0 0.0 0.0 0.0 0.0 0.0 0.9 0.1 0.0 0.0 0.1 0.1 0.0 0.4 0.1 0.0 0.0 0.1 0.8 0.8 0.1 0.3 0.0 0.0 0.0 0.0 0.0 0.4 0.3 1.6 4.2 0.6 0.0 0.0 0.1 0.0 0.0 0.0 0.0 0.0
0.0 0.0 0.0 0.0 0.0 0.0 0.0 0.0 0.0 0.0 0.1 0.8 0.0 0.0 0.0 0.0 0.0 0.0 0.0 0.0 0.1 0.0 1.1 1.3 0.5 0.9 0.7 0.1 0.4 0.0 0.0 0.0 0.2 0.1 0.2 0.0 0.0 0.0 0.0 0.0 0.0 0.0 0.0 0.0
0.0 0.0 0.0 0.0 0.0 0.0 0.0 0.0 0.0 0.0 2.7 1.6 0.8 0.2 0.0 0.0 0.0 0.0 0.3 0.1 0.0 0.0 0.0 0.4 1.1 2.1 0.5 0.7 0.2 0.0 0.0 0.0 0.0 0.0 0.0 0.0 0.0 0.0 0.0 0.0 0.0 0.0 0.0 0.0
0.0 0.0 0.0 0.0 0.0 0.0 0.0 0.0 0.0 0.0 1.0 5.4 0.3 0.0 0.0 0.0 0.0 0.0 0.0 0.0 0.0 0.0 0.4 2.2 3.2 2.3 0.4 0.4 0.1 0.0 0.1 0.0 0.0 0.0 0.0 0.0 0.0 0.0 0.0 0.0 0.0 0.0 0.0 0.0
0.0 0.0 0.0 0.0 0.0 0.0 0.0 0.0 0.0 0.0 0.5 5.2 1.5 0.4 0.1 0.0 0.0 0.0 0.0 0.0 0.0 0.5 2.0 3.5 3.8 0.8 1.1 1.5 1.2 0.4 0.0 0.0 0.1 0.1 0.0 0.0 0.0 0.0 0.0 0.0 0.0 0.0 0.0 0.0
0.0 0.0 0.0 0.0 0.0 0.0 0.0 1.5 0.0 0.0 0.0 3.8 9.9 0.4 0.3 0.0 0.0 0.0 0.0 0.0 0.0 1.3 1.0 3.2 0.8 0.1 0.7 5.2 1.3 0.0 0.0 0.0 0.0 0.0 0.0 0.0 0.0 0.0 0.0 0.0 0.0 0.0 0.0 0.0
0.0 0.0 0.0 0.0 0.0 0.0 0.2 1.0 0.0 0.0 0.0 4.7 22.3 14.5 2.3 0.9 0.8 1.4 1.6 1.2 1.3 2.7 4.5 3.3 1.9 0.8 2.4 4.3 0.9 0.0 0.0 0.0 0.0 0.0 0.0 0.0 0.0 0.0 0.0 0.0 0.0 0.0 0.0 0.0
0.0 0.0 0.0 0.0 0.0 0.0 0.0 0.0 0.0 0.0 1.7 4.8 38.7 25.3 7.6 0.5 1.4 2.5 1.4 1.9 2.2 5.7 3.5 1.3 1.0 1.2 3.3 6.0 0.0 0.0 0.0 0.0 0.0 0.0 0.0 0.0 0.0 0.0 0.0 0.0 0.0 0.0 0.0 0.0
0.0 0.0 0.0 0.0 0.0 0.1 0.0 0.0 0.0 0.0 0.4 30.8 22.2 18.4 9.4 1.5 0.7 1.7 2.5 1.9 8.7 2.6 4.2 0.6 0.6 2.2 7.2 0.6 0.1 0.1 0.0 0.0 0.0 0.0 0.0 0.0 0.0 0.0 0.0 0.0 0.0 0.0 0.0 0.0
0.0 0.0 1.4 8.5 2.1 0.0 0.0 0.0 4.3 14.6 20.2 18.5 16.3 5.2 7.3 2.8 4.7 6.1 8.0 9.0 9.3 13.5 3.1 0.2 5.8 1.3 0.6 0.1 0.2 0.1 0.0 0.0 0.0 3.2 2.0 0.5 1.1 0.2 0.1 0.0 0.0 0.0 0.1 0.2
1.8 9.8 12.0 1.7 0.0 0.7 3.2 28.8 32.9 25.9 26.6 9.7 6.7 4.0 6.5 2.4 9.9 10.9 8.9 15.1 11.3 15.7 3.8 3.8 5.6 6.1 1.0 0.0 0.2 0.0 0.0 0.1 0.0 0.0 0.1 1.0 2.7 3.3 1.9 0.4 1.5 0.9 1.6 2.2
1.8 1.7 1.4 3.0 15.9 29.3 36.5 34.5 14.6 9.5 8.7 8.5 6.9 3.1 3.2 6.2 3.8 12.0 14.0 14.4 12.5 11.7 2.8 10.7 7.3 3.2 1.1 1.2 0.4 0.2 0.1 0.0 0.1 0.1 1.2 0.6 0.6 1.2 1.9 2.2 2.9 2.5 2.5 2.4
2.3 14.5 30.0 28.2 31.1 46.1 33.8 18.6 11.3 10.6 6.4 6.8 4.5 6.1 5.9 8.1 9.8 18.2 16.0 19.4 11.7 4.2 11.3 6.5 3.9 1.0 0.0 0.3 1.1 1.0 0.7 0.1 0.5 0.9 0.0 0.4 0.5 0.3 0.9 1.6 0.1 0.7 1.2 1.7
17.1 34.1 42.2 27.1 25.1 12.8 8.7 5.0 4.2 4.3 5.0 5.3 5.1 6.7 8.5 6.9 15.7 12.3 19.9 9.7 5.4 16.9 12.4 6.6 2.9 2.0 0.9 0.2 0.3 0.6 0.8 0.9 1.3 3.3 3.5 2.5 2.0 1.1 0.9 2.0 2.6 3.0 2.7 2.3
35.8 28.3 26.2 13.7 5.7 3.9 4.5 3.8 4.4 5.2 6.3 8.9 10.2 9.8 8.7 13.0 19.7 11.5 7.4 15.0 14.7 11.5 7.8 5.6 4.9 4.3 3.9 3.9 3.2 2.3 2.4 3.0 3.7 3.3 4.5 5.5 3.4 2.4 2.0 3.1 3.1 3.0 3.0 2.4
32.6 26.1 12.7 3.4 2.5 4.0 2.7 3.6 4.7 4.2 6.0 6.9 11.3 13.7 16.9 15.6 12.7 15.1 10.2 11.2 9.8 8.7 8.6 8.2 6.9 6.6 6.1 6.8 6.1 5.8 5.8 6.5 7.2 7.0 8.2 7.1 7.9 9.4 9.1 5.9 5.0 4.5 4.3 3.6
37.7 13.4 4.8 4.2 2.8 3.1 3.6 4.3 5.0 5.3 7.3 10.0 12.2 20.0 13.5 12.1 15.6 10.5 7.1 9.9 9.5 8.4 6.8 5.8 6.1 5.8 6.2 6.4 5.7 5.7 6.1 6.2 6.9 8.2 9.6 11.2 11.4 10.9 9.4 9.9 11.6 10.2 9.7 8.8

GFSNW_prec_kuchsnow_264.txt.gz
Snowfall_Accumulation
0.0 0.0 0.0 0.0 0.0 0.0 0.0 0.0 5.4 0.0 0.0 2.0 3.0 3.5 1.1 0.0 0.0 0.0 0.0 0.0 0.0 0.0 0.0 0.0 0.0 0.0 0.0 0.0 0.0 0.0 0.0 0.3 1.2 0.2 0.0 0.0 0.0 0.0 0.0 3.4 1.3 2.6 4.8 3.2
0.0 0.0 0.0 0.0 0.0 0.0 0.0 0.0 0.4 0.0 0.0 4.8 2.7 0.0 0.0 0.0 0.0 0.0 0.0 0.0 0.0 0.0 0.0 0.0 0.0 0.0 0.0 0.0 0.0 0.0 0.0 0.7 1.0 1.4 0.3 0.0 0.4 0.0 0.0 0.2 0.8 3.4 5.5 0.5
0.0 0.0 0.0 0.0 0.0 0.0 0.0 0.0 4.7 0.0 0.0 0.0 0.0 0.0 0.1 0.0 0.0 0.0 0.0 0.0 0.0 0.0 0.0 0.0 0.0 0.0 0.0 0.0 0.0 0.0 0.0 0.6 0.9 1.2 2.0 1.9 2.5 0.2 0.1 1.2 6.7 0.6 0.5 0.3
0.0 0.0 0.0 0.0 0.0 0.0 0.0 0.0 0.7 0.0 3.9 0.4 0.0 0.0 0.0 0.0 0.0 0.0 0.0 0.0 0.0 0.0 0.0 0.0 0.0 0.0 0.0 0.0 0.0 0.0 0.0 2.0 0.3 0.4 0.3 2.6 1.7 0.5 0.4 2.7 0.4 2.1 0.0 0.0
0.0 0.0 0.0 0.0 0.0 0.0 0.0 0.0 0.0 0.0 0.0 0.0 0.0 0.0 0.0 0.0 0.0 0.0 0.0 0.0 0.0 0.0 0.0 0.0 0.0 0.0 0.0 0.0 0.0 0.0 0.0 2.8 2.2 2.7 0.7 1.6 1.9 0.2 0.2 0.2 0.0 0.0 0.0 0.0
0.0 0.0 0.0 0.0 0.0 0.0 0.0 0.0 0.0 0.0 0.0 0.0 0.0 0.0 0.0 0.0 0.0 0.0 0.0 0.0 0.0 0.0 0.0 0.0 0.0 0.0 0.0 0.0 0.0 0.0 0.6 3.1 4.9 5.0 0.2 0.7 1.7 0.2 0.1 0.0 0.0 0.0 0.1 0.0
0.0 0.0 0.0 0.0 0.0 0.0 0.0 0.0 0.0 0.0 0.1 0.0 0.0 0.0 0.0 0.0 0.0 0.1 0.0 0.0 0.0 0.0 0.0 0.0 0.0 0.0 0.0 0.0 0.0 0.0 0.0 2.7 4.8 8.2 2.1 5.1 0.0 0.0 0.0 0.0 0.1 0.2 0.1 0.0
0.0 0.0 0.0 0.0 0.0 0.0 0.0 0.0 0.0 0.0 0.5 0.0 0.0 0.0 0.0 0.0 0.0 0.0 0.0 0.0 0.0 0.0 0.0 0.0 0.0 0.0 0.0 0.0 0.0 0.0 0.0 0.3 3.0 4.3 2.3 0.0 0.0 0.0 0.0 0.0 0.3 0.0 0.1 0.0
0.0 0.0 0.0 0.0 0.0 0.0 0.0 0.0 0.0 0.0 0.6 0.0 0.0 0.0 0.0 0.2 0.3 0.1 0.0 0.0 0.0 0.0 0.0 0.0 0.8 0.0 0.0 0.0 0.0 0.0 0.0 0.0 1.3 1.4 3.7 0.7 0.0 0.0 0.0 0.0 0.6 0.0 0.0 0.0
0.0 0.0 0.0 0.0 0.0 0.0 0.0 0.0 0.0 0.0 1.2 0.2 0.0 0.1 0.2 0.0 0.2 0.2 0.0 0.0 0.0 0.0 0.0 0.8 0.8 0.1 0.0 0.0 0.0 0.1 0.1 0.4 2.2 1.1 4.0 0.0 0.0 0.0 0.0 0.1 0.4 0.0 0.0 0.0
0.0 0.0 0.0 0.0 0.0 0.0 0.0 0.0 0.0 0.0 0.9 0.1 0.0 0.0 0.1 0.1 0.0 0.4 0.1 0.0 0.0 0.1 0.8 0.8 0.1 0.3 0.0 0.0 0.0 0.0 0.0 0.4 0.3 1.7 4.5 0.8 0.0 0.0 0.1 0.0 0.0 0.0 0.0 0.0
0.0 0.0 0.0 0.0 0.0 0.0 0.0 0.0 0.0 0.0 0.1 0.8 0.0 0.0 0.0 0.0 0.0 0.0 0.0 0.0 0.1 0.0 1.1 1.3 0.5 0.9 0.7 0.1 0.4 0.0 0.0 0.0 0.2 0.1 0.2 0.0 0.0 0.0 0.0 0.0 0.0 0.0 0.0 0.0
0.0 0.0 0.0 0.0 0.0 0.0 0.0 0.0 0.0 0.0 2.7 1.6 0.8 0.2 0.0 0.0 0.0 0.0 0.3 0.1 0.0 0.0 0.0 0.4 1.1 2.1 0.5 0.7 0.2 0.0 0.0 0.0 0.0 0.0 0.0 0.0 0.0 0.0 0.0 0.0 0.0 0.0 0.0 0.0
0.0 0.0 0.0 0.0 0.0 0.0 0.0 0.0 0.0 0.0 1.0 6.9 0.3 0.0 0.0 0.0 0.0 0.0 0.0 0.0 0.0 0.0 0.4 2.2 3.2 2.3 0.4 0.4 0.1 0.0 0.1 0.0 0.0 0.0 0.0 0.0 0.0 0.0 0.0 0.0 0.0 0.0 0.0 0.0
0.0 0.0 0.0 0.0 0.0 0.0 0.0 0.0 0.0 0.0 0.5 7.5 2.5 0.4 0.1 0.0 0.0 0.0 0.0 0.0 0.0 0.5 2.0 3.5 3.8 0.8 1.1 1.5 1.2 0.4 0.0 0.0 0.1 0.1 0.0 0.0 0.0 0.0 0.0 0.0 0.0 0.0 0.0 0.0
0.0 0.0 0.0 0.0 0.0 0.0 0.0 1.5 0.0 0.0 0.0 3.8 12.0 0.4 0.3 0.0 0.0 0.0 0.0 0.0 0.0 1.3 1.0 3.2 0.8 0.1 0.7 5.2 1.8 0.0 0.0 0.0 0.0 0.0 0.0 0.0 0.0 0.1 0.0 0.0 0.0 0.0 0.0 0.0
0.0 0.0 0.0 0.0 0.0 0.0 0.2 1.0 0.0 0.0 0.0 4.7 25.9 16.3 2.7 0.9 0.8 1.4 1.6 1.2 1.3 2.7 4.5 3.3 1.9 1.5 2.4 5.9 1.6 0.0 0.0 0.0 0.0 0.0 0.0 1.0 0.3 0.0 0.0 0.0 0.0 0.0 0.0 0.0
0.0 0.0 0.0 0.0 0.0 0.0 0.0 0.0 0.0 0.0 1.7 4.8 49.1 33.2 10.2 1.1 1.7 3.2 2.5 3.4 4.0 8.1 6.4 3.8 2.7 2.7 6.3 9.4 1.0 0.1 0.1 0.7 1.6 1.8 1.2 0.5 0.1 0.0 0.0 0.0 0.0 0.0 0.0 0.0
0.0 0.0 0.0 0.0 0.0 0.1 0.0 0.0 0.0 0.0 0.4 43.0 34.2 24.9 11.9 2.2 1.3 2.4 4.0 3.8 12.8 7.5 8.8 2.5 1.8 5.9 10.9 2.9 1.0 0.6 1.5 2.8 2.3 1.4 0.5 0.2 0.0 0.0 0.0 0.0 0.0 0.0 0.0 0.0
0.0 0.0 1.4 10.5 2.1 0.0 0.0 0.0 6.9 18.2 25.8 24.7 24.6 9.9 10.2 4.1 5.2 7.7 11.2 13.1 15.0 19.9 7.2 2.9 9.3 4.1 1.9 1.6 2.5 2.9 2.9 1.8 0.9 3.6 2.2 0.6 1.1 0.2 0.1 0.0 0.0 0.0 0.1 0.2
1.8 12.3 13.8 1.7 0.0 0.7 6.0 32.5 36.7 29.3 30.5 12.6 9.2 6.6 8.7 4.1 12.3 14.1 12.9 20.4 16.3 20.9 7.0 6.2 8.5 7.2 1.5 1.9 3.7 3.1 2.1 1.2 0.5 0.1 0.1 1.0 2.7 3.3 1.9 0.4 1.5 0.9 1.6 2.2
1.8 1.7 1.8 3.8 17.6 31.7 39.8 38.3 18.1 12.4 10.9 9.8 7.9 5.1 5.5 8.8 5.8 15.2 17.6 18.1 15.5 15.0 4.0 12.1 8.9 3.7 2.2 3.2 2.4 1.7 1.0 0.5 0.2 0.1 1.2 0.6 0.6 1.2 1.9 2.2 2.9 2.5 2.5 2.4
2.3 16.9 31.9 29.8 32.8 48.6 36.3 21.0 13.3 12.4 7.5 7.6 5.5 8.1 8.4 10.9 12.4 21.1 19.1 22.9 14.7 5.7 12.6 8.0 4.9 2.0 1.5 1.4 1.7 1.3 0.8 0.1 0.5 0.9 0.0 0.4 0.5 0.3 0.9 1.6 0.1 0.7 1.2 1.7
20.1 36.4 44.0 28.6 26.3 13.9 9.7 6.2 5.4 5.8 6.8 7.4 7.4 9.0 10.6 9.0 18.0 14.7 22.4 12.1 7.0 18.8 14.0 7.8 4.1 3.0 1.2 0.2 0.3 0.6 0.8 0.9 1.3 3.3 3.5 2.5 2.0 1.1 0.9 2.0 2.6 3.0 2.7 2.3
38.0 29.5 27.3 14.7 6.6 4.9 5.8 5.5 6.2 7.3 8.8 11.5 12.5 11.8 10.4 15.2 21.8 13.1 8.8 16.9 16.6 12.8 8.9 6.3 5.3 4.5 3.9 3.9 3.2 2.3 2.4 3.0 3.7 3.3 4.5 5.5 3.4 2.4 2.0 3.1 3.1 3.0 3.0 2.4
34.0 26.8 13.3 4.3 3.2 4.9 3.7 5.0 6.1 5.8 7.8 7.9 11.9 14.5 17.9 17.1 13.9 16.2 11.6 12.3 10.9 9.3 8.8 8.2 6.9 6.6 6.1 6.8 6.1 5.8 5.8 6.5 7.2 7.0 8.2 7.1 7.9 9.4 9.1 5.9 5.0 4.5 4.3 3.6
38.3 14.9 6.1 5.8 4.1 4.1 4.5 5.1 5.7 5.3 7.3 10.0 12.2 20.0 13.7 12.1 15.6 10.7 7.3 10.0 9.7 8.4 6.8 5.8 6.1 5.8 6.2 6.4 5.7 5.7 6.1 6.2 6.9 8.2 9.6 11.2 11.4 10.9 9.4 9.9 11.6 10.2 9.7 8.8